Wetterdaten: Montag, 01.04.2019
Datum Zeit Temp. Aussen Temp. o. S. +5cm Feuchte Auss Luftdruck Regen Sonnenschein Regendauer Solar Windben Empfang
01.04.2019 00:00 6,6 C 5,6 C 5,0 C 74 % 1022,7 hPa 0,0 l/m 0 min 0 min 0 W/m 12,9 km/h (3 Bft) 100,00 %
01.04.2019 00:02 6,6 C 5,6 C 5,0 C 74 % 1022,7 hPa 0,0 l/m 0 min 0 min 0 W/m 9,7 km/h (2 Bft) 100,00 %
01.04.2019 00:04 6,6 C 5,6 C 5,0 C 74 % 1022,7 hPa 0,0 l/m 0 min 0 min 0 W/m 9,7 km/h (2 Bft) 100,00 %
01.04.2019 00:07 6,6 C 5,6 C 5,0 C 74 % 1022,8 hPa 0,0 l/m 0 min 0 min 0 W/m 12,9 km/h (3 Bft) 100,00 %
01.04.2019 00:08 6,6 C 5,6 C 5,0 C 74 % 1022,7 hPa 0,0 l/m 0 min 0 min 0 W/m 12,9 km/h (3 Bft) 97,85 %
01.04.2019 00:10 6,6 C 5,6 C 5,0 C 75 % 1022,8 hPa 0,0 l/m 0 min 0 min 0 W/m 9,7 km/h (2 Bft) 97,87 %
01.04.2019 00:12 6,5 C 5,6 C 5,0 C 75 % 1022,8 hPa 0,0 l/m 0 min 0 min 0 W/m 12,9 km/h (3 Bft) 100,00 %
01.04.2019 00:14 6,5 C 5,6 C 5,0 C 75 % 1022,7 hPa 0,0 l/m 0 min 0 min 0 W/m 9,7 km/h (2 Bft) 100,00 %
01.04.2019 00:16 6,5 C 5,6 C 5,0 C 75 % 1022,8 hPa 0,0 l/m 0 min 0 min 0 W/m 12,9 km/h (3 Bft) 100,00 %
01.04.2019 00:18 6,5 C 5,6 C 5,0 C 75 % 1022,8 hPa 0,0 l/m 0 min 0 min 0 W/m 12,9 km/h (3 Bft) 100,00 %
01.04.2019 00:20 6,4 C 5,6 C 5,0 C 75 % 1022,8 hPa 0,0 l/m 0 min 0 min 0 W/m 12,9 km/h (3 Bft) 100,00 %
01.04.2019 00:22 6,4 C 5,6 C 5,0 C 75 % 1022,7 hPa 0,0 l/m 0 min 0 min 0 W/m 9,7 km/h (2 Bft) 100,00 %
01.04.2019 00:24 6,4 C 5,6 C 5,0 C 75 % 1022,8 hPa 0,0 l/m 0 min 0 min 0 W/m 12,9 km/h (3 Bft) 100,00 %
01.04.2019 00:26 6,4 C 5,6 C 5,0 C 75 % 1022,8 hPa 0,0 l/m 0 min 0 min 0 W/m 19,3 km/h (3 Bft) 100,00 %
01.04.2019 00:28 6,4 C 5,6 C 5,0 C 75 % 1022,8 hPa 0,0 l/m 0 min 0 min 0 W/m 12,9 km/h (3 Bft) 97,87 %
01.04.2019 00:30 6,4 C 5,6 C 5,0 C 75 % 1022,7 hPa 0,0 l/m 0 min 0 min 0 W/m 12,9 km/h (3 Bft) 100,00 %
01.04.2019 00:32 6,3 C 5,6 C 5,0 C 75 % 1022,8 hPa 0,0 l/m 0 min 0 min 0 W/m 12,9 km/h (3 Bft) 97,87 %
01.04.2019 00:34 6,3 C 5,6 C 4,4 C 74 % 1022,7 hPa 0,0 l/m 0 min 0 min 0 W/m 12,9 km/h (3 Bft) 97,87 %
01.04.2019 00:36 6,3 C 5,6 C 4,4 C 74 % 1022,7 hPa 0,0 l/m 0 min 0 min 0 W/m 9,7 km/h (2 Bft) 100,00 %
01.04.2019 00:38 6,3 C 5,0 C 4,4 C 74 % 1022,7 hPa 0,0 l/m 0 min 0 min 0 W/m 16,1 km/h (3 Bft) 100,00 %
01.04.2019 00:40 6,2 C 5,0 C 4,4 C 75 % 1022,7 hPa 0,0 l/m 0 min 0 min 0 W/m 12,9 km/h (3 Bft) 97,87 %
01.04.2019 00:42 6,2 C 5,0 C 4,4 C 74 % 1022,7 hPa 0,0 l/m 0 min 0 min 0 W/m 16,1 km/h (3 Bft) 100,00 %
01.04.2019 00:44 6,2 C 5,0 C 4,4 C 74 % 1022,7 hPa 0,0 l/m 0 min 0 min 0 W/m 12,9 km/h (3 Bft) 100,00 %
01.04.2019 00:46 6,1 C 5,0 C 4,4 C 74 % 1022,8 hPa 0,0 l/m 0 min 0 min 0 W/m 12,9 km/h (3 Bft) 100,00 %
01.04.2019 00:48 6,1 C 5,0 C 4,4 C 74 % 1022,8 hPa 0,0 l/m 0 min 0 min 0 W/m 9,7 km/h (2 Bft) 100,00 %
01.04.2019 00:50 6,1 C 5,0 C 4,4 C 75 % 1022,7 hPa 0,0 l/m 0 min 0 min 0 W/m 9,7 km/h (2 Bft) 100,00 %
01.04.2019 00:52 6,0 C 5,0 C 4,4 C 75 % 1022,8 hPa 0,0 l/m 0 min 0 min 0 W/m 12,9 km/h (3 Bft) 100,00 %
01.04.2019 00:54 5,9 C 5,0 C 4,4 C 74 % 1022,7 hPa 0,0 l/m 0 min 0 min 0 W/m 12,9 km/h (3 Bft) 100,00 %
01.04.2019 00:56 5,9 C 5,0 C 4,4 C 74 % 1022,7 hPa 0,0 l/m 0 min 0 min 0 W/m 12,9 km/h (3 Bft) 100,00 %
01.04.2019 00:58 5,9 C 5,0 C 4,4 C 74 % 1022,7 hPa 0,0 l/m 0 min 0 min 0 W/m 9,7 km/h (2 Bft) 100,00 %
01.04.2019 01:00 5,8 C 5,0 C 4,4 C 74 % 1022,7 hPa 0,0 l/m 0 min 0 min 0 W/m 12,9 km/h (3 Bft) 97,87 %
01.04.2019 01:02 5,8 C 5,0 C 4,4 C 74 % 1022,7 hPa 0,0 l/m 0 min 0 min 0 W/m 12,9 km/h (3 Bft) 97,87 %
01.04.2019 01:04 5,8 C 5,0 C 4,4 C 74 % 1022,7 hPa 0,0 l/m 0 min 0 min 0 W/m 12,9 km/h (3 Bft) 100,00 %
01.04.2019 01:06 5,8 C 5,0 C 4,4 C 74 % 1022,7 hPa 0,0 l/m 0 min 0 min 0 W/m 12,9 km/h (3 Bft) 100,00 %
01.04.2019 01:08 5,7 C 4,4 C 3,9 C 74 % 1022,7 hPa 0,0 l/m 0 min 0 min 0 W/m 12,9 km/h (3 Bft) 100,00 %
01.04.2019 01:10 5,7 C 4,4 C 3,9 C 74 % 1022,7 hPa 0,0 l/m 0 min 0 min 0 W/m 12,9 km/h (3 Bft) 97,87 %
01.04.2019 01:12 5,7 C 4,4 C 3,9 C 74 % 1022,6 hPa 0,0 l/m 0 min 0 min 0 W/m 9,7 km/h (2 Bft) 100,00 %
01.04.2019 01:14 5,6 C 4,4 C 3,9 C 74 % 1022,7 hPa 0,0 l/m 0 min 0 min 0 W/m 9,7 km/h (2 Bft) 100,00 %
01.04.2019 01:16 5,6 C 4,4 C 3,9 C 74 % 1022,7 hPa 0,0 l/m 0 min 0 min 0 W/m 9,7 km/h (2 Bft) 97,87 %
01.04.2019 01:18 5,6 C 4,4 C 3,9 C 75 % 1022,7 hPa 0,0 l/m 0 min 0 min 0 W/m 9,7 km/h (2 Bft) 97,83 %
01.04.2019 01:20 5,5 C 4,4 C 3,9 C 75 % 1022,7 hPa 0,0 l/m 0 min 0 min 0 W/m 6,4 km/h (2 Bft) 97,87 %
01.04.2019 01:22 5,5 C 4,4 C 3,9 C 75 % 1022,7 hPa 0,0 l/m 0 min 0 min 0 W/m 16,1 km/h (3 Bft) 97,87 %
01.04.2019 01:24 5,4 C 4,4 C 3,9 C 75 % 1022,8 hPa 0,0 l/m 0 min 0 min 0 W/m 9,7 km/h (2 Bft) 100,00 %
01.04.2019 01:26 5,4 C 4,4 C 3,9 C 74 % 1022,7 hPa 0,0 l/m 0 min 0 min 0 W/m 9,7 km/h (2 Bft) 100,00 %
01.04.2019 01:28 5,3 C 4,4 C 3,9 C 74 % 1022,7 hPa 0,0 l/m 0 min 0 min 0 W/m 12,9 km/h (3 Bft) 97,83 %
01.04.2019 01:30 5,3 C 4,4 C 3,9 C 74 % 1022,5 hPa 0,0 l/m 0 min 0 min 0 W/m 9,7 km/h (2 Bft) 97,87 %
01.04.2019 01:32 5,3 C 3,9 C 3,9 C 74 % 1022,6 hPa 0,0 l/m 0 min 0 min 0 W/m 9,7 km/h (2 Bft) 95,74 %
01.04.2019 01:34 5,2 C 3,9 C 3,9 C 74 % 1022,6 hPa 0,0 l/m 0 min 0 min 0 W/m 9,7 km/h (2 Bft) 97,87 %
01.04.2019 01:36 5,2 C 3,9 C 3,3 C 74 % 1022,6 hPa 0,0 l/m 0 min 0 min 0 W/m 12,9 km/h (3 Bft) 95,74 %
01.04.2019 01:38 5,1 C 3,9 C 3,3 C 74 % 1022,7 hPa 0,0 l/m 0 min 0 min 0 W/m 12,9 km/h (3 Bft) 95,74 %
01.04.2019 01:40 5,1 C 3,9 C 3,3 C 74 % 1022,6 hPa 0,0 l/m 0 min 0 min 0 W/m 9,7 km/h (2 Bft) 95,65 %
01.04.2019 01:42 5,1 C 3,9 C 3,3 C 74 % 1022,5 hPa 0,0 l/m 0 min 0 min 0 W/m 12,9 km/h (3 Bft) 93,62 %
01.04.2019 01:44 5,0 C 3,9 C 3,3 C 74 % 1022,6 hPa 0,0 l/m 0 min 0 min 0 W/m 12,9 km/h (3 Bft) 91,49 %
01.04.2019 01:46 5,0 C 3,9 C 3,3 C 74 % 1022,6 hPa 0,0 l/m 0 min 0 min 0 W/m 9,7 km/h (2 Bft) 93,62 %
01.04.2019 01:48 4,9 C 3,9 C 3,3 C 75 % 1022,5 hPa 0,0 l/m 0 min 0 min 0 W/m 9,7 km/h (2 Bft) 93,62 %
01.04.2019 01:50 4,9 C 3,9 C 3,3 C 75 % 1022,6 hPa 0,0 l/m 0 min 0 min 0 W/m 9,7 km/h (2 Bft) 93,62 %
01.04.2019 01:52 4,9 C 3,9 C 3,3 C 75 % 1022,5 hPa 0,0 l/m 0 min 0 min 0 W/m 9,7 km/h (2 Bft) 93,48 %
01.04.2019 01:54 4,9 C 3,9 C 3,3 C 75 % 1022,5 hPa 0,0 l/m 0 min 0 min 0 W/m 9,7 km/h (2 Bft) 93,62 %
01.04.2019 01:56 4,8 C 3,9 C 3,3 C 75 % 1022,5 hPa 0,0 l/m 0 min 0 min 0 W/m 12,9 km/h (3 Bft) 93,62 %
01.04.2019 01:58 4,8 C 3,9 C 3,3 C 75 % 1022,5 hPa 0,0 l/m 0 min 0 min 0 W/m 9,7 km/h (2 Bft) 93,62 %
01.04.2019 02:00 4,8 C 3,9 C 3,3 C 75 % 1022,5 hPa 0,0 l/m 0 min 0 min 0 W/m 9,7 km/h (2 Bft) 89,36 %
01.04.2019 02:02 4,7 C 3,9 C 3,3 C 75 % 1022,5 hPa 0,0 l/m 0 min 0 min 0 W/m 9,7 km/h (2 Bft) 91,49 %
01.04.2019 02:04 4,7 C 3,9 C 3,3 C 75 % 1022,5 hPa 0,0 l/m 0 min 0 min 0 W/m 12,9 km/h (3 Bft) 93,48 %
01.04.2019 02:06 4,7 C 3,9 C 3,3 C 75 % 1022,5 hPa 0,0 l/m 0 min 0 min 0 W/m 16,1 km/h (3 Bft) 89,36 %
01.04.2019 02:08 4,7 C 3,9 C 3,3 C 75 % 1022,5 hPa 0,0 l/m 0 min 0 min 0 W/m 9,7 km/h (2 Bft) 95,74 %
01.04.2019 02:10 4,6 C 3,3 C 3,3 C 75 % 1022,4 hPa 0,0 l/m 0 min 0 min 0 W/m 9,7 km/h (2 Bft) 95,74 %
01.04.2019 02:12 4,6 C 3,3 C 3,3 C 75 % 1022,4 hPa 0,0 l/m 0 min 0 min 0 W/m 12,9 km/h (3 Bft) 93,62 %
01.04.2019 02:14 4,6 C 3,9 C 3,3 C 75 % 1022,4 hPa 0,0 l/m 0 min 0 min 0 W/m 12,9 km/h (3 Bft) 93,62 %
01.04.2019 02:16 4,6 C 3,9 C 3,3 C 75 % 1022,4 hPa 0,0 l/m 0 min 0 min 0 W/m 16,1 km/h (3 Bft) 95,65 %
01.04.2019 02:18 4,5 C 3,3 C 3,3 C 75 % 1022,4 hPa 0,0 l/m 0 min 0 min 0 W/m 9,7 km/h (2 Bft) 93,62 %
01.04.2019 02:20 4,5 C 3,3 C 3,3 C 75 % 1022,4 hPa 0,0 l/m 0 min 0 min 0 W/m 12,9 km/h (3 Bft) 95,74 %
01.04.2019 02:22 4,5 C 3,3 C 2,8 C 75 % 1022,4 hPa 0,0 l/m 0 min 0 min 0 W/m 9,7 km/h (2 Bft) 95,74 %
01.04.2019 02:24 4,4 C 3,3 C 2,8 C 76 % 1022,4 hPa 0,0 l/m 0 min 0 min 0 W/m 12,9 km/h (3 Bft) 95,74 %
01.04.2019 02:26 4,4 C 3,3 C 2,8 C 76 % 1022,4 hPa 0,0 l/m 0 min 0 min 0 W/m 9,7 km/h (2 Bft) 93,62 %
01.04.2019 02:28 4,4 C 3,3 C 2,8 C 76 % 1022,4 hPa 0,0 l/m 0 min 0 min 0 W/m 9,7 km/h (2 Bft) 97,83 %
01.04.2019 02:30 4,4 C 3,3 C 2,8 C 76 % 1022,4 hPa 0,0 l/m 0 min 0 min 0 W/m 9,7 km/h (2 Bft) 97,87 %
01.04.2019 02:32 4,3 C 3,3 C 2,8 C 76 % 1022,4 hPa 0,0 l/m 0 min 0 min 0 W/m 12,9 km/h (3 Bft) 97,87 %
01.04.2019 02:34 4,3 C 3,3 C 2,8 C 76 % 1022,4 hPa 0,0 l/m 0 min 0 min 0 W/m 9,7 km/h (2 Bft) 95,74 %
01.04.2019 02:36 4,3 C 3,3 C 2,8 C 76 % 1022,5 hPa 0,0 l/m 0 min 0 min 0 W/m 9,7 km/h (2 Bft) 97,87 %
01.04.2019 02:38 4,3 C 3,3 C 2,8 C 76 % 1022,5 hPa 0,0 l/m 0 min 0 min 0 W/m 9,7 km/h (2 Bft) 95,65 %
01.04.2019 02:40 4,2 C 3,3 C 2,8 C 76 % 1022,4 hPa 0,0 l/m 0 min 0 min 0 W/m 9,7 km/h (2 Bft) 97,87 %
01.04.2019 02:42 4,2 C 3,3 C 2,8 C 77 % 1022,4 hPa 0,0 l/m 0 min 0 min 0 W/m 9,7 km/h (2 Bft) 97,87 %
01.04.2019 02:44 4,2 C 3,3 C 2,8 C 77 % 1022,4 hPa 0,0 l/m 0 min 0 min 0 W/m 12,9 km/h (3 Bft) 97,87 %
01.04.2019 02:46 4,2 C 3,3 C 2,8 C 77 % 1022,4 hPa 0,0 l/m 0 min 0 min 0 W/m 16,1 km/h (3 Bft) 97,87 %
01.04.2019 02:48 4,2 C 3,3 C 2,8 C 77 % 1022,4 hPa 0,0 l/m 0 min 0 min 0 W/m 9,7 km/h (2 Bft) 97,87 %
01.04.2019 02:50 4,1 C 3,3 C 2,8 C 77 % 1022,4 hPa 0,0 l/m 0 min 0 min 0 W/m 16,1 km/h (3 Bft) 97,83 %
01.04.2019 02:52 4,1 C 3,3 C 2,8 C 77 % 1022,3 hPa 0,0 l/m 0 min 0 min 0 W/m 9,7 km/h (2 Bft) 97,87 %
01.04.2019 02:54 4,1 C 3,3 C 2,8 C 77 % 1022,3 hPa 0,0 l/m 0 min 0 min 0 W/m 9,7 km/h (2 Bft) 97,87 %
01.04.2019 02:56 4,1 C 3,3 C 2,8 C 77 % 1022,4 hPa 0,0 l/m 0 min 0 min 0 W/m 12,9 km/h (3 Bft) 100,00 %
01.04.2019 02:58 4,0 C 3,3 C 2,8 C 77 % 1022,4 hPa 0,0 l/m 0 min 0 min 0 W/m 9,7 km/h (2 Bft) 100,00 %
01.04.2019 03:00 4,0 C 2,8 C 2,8 C 77 % 1022,3 hPa 0,0 l/m 0 min 0 min 0 W/m 9,7 km/h (2 Bft) 100,00 %
01.04.2019 03:02 4,0 C 2,8 C 2,8 C 77 % 1022,3 hPa 0,0 l/m 0 min 0 min 0 W/m 9,7 km/h (2 Bft) 100,00 %
01.04.2019 03:04 3,9 C 2,8 C 2,8 C 78 % 1022,3 hPa 0,0 l/m 0 min 0 min 0 W/m 16,1 km/h (3 Bft) 98,00 %
01.04.2019 03:06 3,9 C 2,8 C 2,8 C 78 % 1022,2 hPa 0,0 l/m 0 min 0 min 0 W/m 6,4 km/h (2 Bft) 97,87 %
01.04.2019 03:08 3,9 C 2,8 C 2,8 C 78 % 1022,3 hPa 0,0 l/m 0 min 0 min 0 W/m 16,1 km/h (3 Bft) 100,00 %
01.04.2019 03:10 3,9 C 2,8 C 2,8 C 78 % 1022,4 hPa 0,0 l/m 0 min 0 min 0 W/m 16,1 km/h (3 Bft) 100,00 %
01.04.2019 03:12 3,9 C 2,8 C 2,2 C 78 % 1022,2 hPa 0,0 l/m 0 min 0 min 0 W/m 12,9 km/h (3 Bft) 100,00 %
01.04.2019 03:14 3,8 C 2,8 C 2,2 C 78 % 1022,2 hPa 0,0 l/m 0 min 0 min 0 W/m 9,7 km/h (2 Bft) 100,00 %
01.04.2019 03:16 3,8 C 2,8 C 2,2 C 78 % 1022,3 hPa 0,0 l/m 0 min 0 min 0 W/m 9,7 km/h (2 Bft) 100,00 %
01.04.2019 03:18 3,8 C 2,8 C 2,2 C 78 % 1022,3 hPa 0,0 l/m 0 min 0 min 0 W/m 12,9 km/h (3 Bft) 100,00 %
01.04.2019 03:20 3,8 C 2,8 C 2,2 C 78 % 1022,2 hPa 0,0 l/m 0 min 0 min 0 W/m 12,9 km/h (3 Bft) 100,00 %
01.04.2019 03:22 3,8 C 2,8 C 2,8 C 78 % 1022,2 hPa 0,0 l/m 0 min 0 min 0 W/m 12,9 km/h (3 Bft) 95,74 %
01.04.2019 03:24 3,7 C 2,8 C 2,2 C 78 % 1022,2 hPa 0,0 l/m 0 min 0 min 0 W/m 12,9 km/h (3 Bft) 100,00 %
01.04.2019 03:26 3,7 C 2,8 C 2,2 C 78 % 1022,2 hPa 0,0 l/m 0 min 0 min 0 W/m 9,7 km/h (2 Bft) 97,83 %
01.04.2019 03:28 3,7 C 2,8 C 2,2 C 78 % 1022,1 hPa 0,0 l/m 0 min 0 min 0 W/m 16,1 km/h (3 Bft) 95,74 %
01.04.2019 03:30 3,7 C 2,8 C 2,2 C 78 % 1022,1 hPa 0,0 l/m 0 min 0 min 0 W/m 9,7 km/h (2 Bft) 97,87 %
01.04.2019 03:32 3,7 C 2,8 C 2,2 C 78 % 1022,1 hPa 0,0 l/m 0 min 0 min 0 W/m 9,7 km/h (2 Bft) 100,00 %
01.04.2019 03:34 3,7 C 2,8 C 2,2 C 78 % 1022,1 hPa 0,0 l/m 0 min 0 min 0 W/m 12,9 km/h (3 Bft) 97,87 %
01.04.2019 03:36 3,6 C 2,8 C 2,2 C 78 % 1022,1 hPa 0,0 l/m 0 min 0 min 0 W/m 19,3 km/h (3 Bft) 100,00 %
01.04.2019 03:38 3,6 C 2,8 C 2,2 C 78 % 1022,1 hPa 0,0 l/m 0 min 0 min 0 W/m 9,7 km/h (2 Bft) 97,87 %
01.04.2019 03:40 3,6 C 2,8 C 2,2 C 78 % 1022,0 hPa 0,0 l/m 0 min 0 min 0 W/m 9,7 km/h (2 Bft) 97,87 %
01.04.2019 03:42 3,6 C 2,8 C 2,2 C 78 % 1022,1 hPa 0,0 l/m 0 min 0 min 0 W/m 9,7 km/h (2 Bft) 97,87 %
01.04.2019 03:44 3,6 C 2,8 C 2,2 C 78 % 1022,1 hPa 0,0 l/m 0 min 0 min 0 W/m 12,9 km/h (3 Bft) 97,87 %
01.04.2019 03:46 3,6 C 2,8 C 2,2 C 78 % 1022,0 hPa 0,0 l/m 0 min 0 min 0 W/m 9,7 km/h (2 Bft) 97,87 %
01.04.2019 03:48 3,5 C 2,8 C 2,2 C 78 % 1022,0 hPa 0,0 l/m 0 min 0 min 0 W/m 9,7 km/h (2 Bft) 97,83 %
01.04.2019 03:50 3,5 C 2,8 C 2,2 C 78 % 1022,0 hPa 0,0 l/m 0 min 0 min 0 W/m 9,7 km/h (2 Bft) 95,74 %
01.04.2019 03:52 3,5 C 2,8 C 2,2 C 78 % 1022,0 hPa 0,0 l/m 0 min 0 min 0 W/m 12,9 km/h (3 Bft) 97,87 %
01.04.2019 03:54 3,4 C 2,8 C 2,2 C 79 % 1022,0 hPa 0,0 l/m 0 min 0 min 0 W/m 12,9 km/h (3 Bft) 97,87 %
01.04.2019 03:56 3,4 C 2,8 C 2,2 C 79 % 1021,9 hPa 0,0 l/m 0 min 0 min 0 W/m 12,9 km/h (3 Bft) 97,87 %
01.04.2019 03:58 3,4 C 2,8 C 2,2 C 79 % 1022,0 hPa 0,0 l/m 0 min 0 min 0 W/m 16,1 km/h (3 Bft) 97,87 %
01.04.2019 04:00 3,4 C 2,8 C 2,2 C 79 % 1021,9 hPa 0,0 l/m 0 min 0 min 0 W/m 9,7 km/h (2 Bft) 95,65 %
01.04.2019 04:02 3,4 C 2,8 C 2,2 C 79 % 1021,9 hPa 0,0 l/m 0 min 0 min 0 W/m 12,9 km/h (3 Bft) 100,00 %
01.04.2019 04:04 3,3 C 2,8 C 2,2 C 79 % 1021,9 hPa 0,0 l/m 0 min 0 min 0 W/m 12,9 km/h (3 Bft) 100,00 %
01.04.2019 04:06 3,3 C 2,2 C 2,2 C 79 % 1021,9 hPa 0,0 l/m 0 min 0 min 0 W/m 9,7 km/h (2 Bft) 97,87 %
01.04.2019 04:08 3,3 C 2,8 C 2,2 C 79 % 1021,9 hPa 0,0 l/m 0 min 0 min 0 W/m 12,9 km/h (3 Bft) 97,87 %
01.04.2019 04:10 3,3 C 2,8 C 2,2 C 79 % 1021,9 hPa 0,0 l/m 0 min 0 min 0 W/m 12,9 km/h (3 Bft) 97,87 %
01.04.2019 04:12 3,3 C 2,2 C 2,2 C 79 % 1021,9 hPa 0,0 l/m 0 min 0 min 0 W/m 12,9 km/h (3 Bft) 97,83 %
01.04.2019 04:14 3,2 C 2,2 C 2,2 C 79 % 1021,9 hPa 0,0 l/m 0 min 0 min 0 W/m 12,9 km/h (3 Bft) 97,87 %
01.04.2019 04:16 3,2 C 2,2 C 2,2 C 79 % 1021,8 hPa 0,0 l/m 0 min 0 min 0 W/m 9,7 km/h (2 Bft) 97,87 %
01.04.2019 04:18 3,2 C 2,2 C 1,7 C 79 % 1021,8 hPa 0,0 l/m 0 min 0 min 0 W/m 9,7 km/h (2 Bft) 97,87 %
01.04.2019 04:20 3,2 C 2,2 C 1,7 C 79 % 1021,9 hPa 0,0 l/m 0 min 0 min 0 W/m 9,7 km/h (2 Bft) 100,00 %
01.04.2019 04:22 3,2 C 2,2 C 1,7 C 79 % 1021,9 hPa 0,0 l/m 0 min 0 min 0 W/m 12,9 km/h (3 Bft) 95,65 %
01.04.2019 04:24 3,2 C 2,2 C 1,7 C 79 % 1021,8 hPa 0,0 l/m 0 min 0 min 0 W/m 12,9 km/h (3 Bft) 97,87 %
01.04.2019 04:26 3,1 C 2,2 C 1,7 C 79 % 1021,8 hPa 0,0 l/m 0 min 0 min 0 W/m 9,7 km/h (2 Bft) 95,74 %
01.04.2019 04:28 3,1 C 2,2 C 1,7 C 79 % 1021,8 hPa 0,0 l/m 0 min 0 min 0 W/m 9,7 km/h (2 Bft) 100,00 %
01.04.2019 04:30 3,1 C 2,2 C 1,7 C 79 % 1021,8 hPa 0,0 l/m 0 min 0 min 0 W/m 9,7 km/h (2 Bft) 100,00 %
01.04.2019 04:32 3,1 C 2,2 C 1,7 C 79 % 1021,8 hPa 0,0 l/m 0 min 0 min 0 W/m 9,7 km/h (2 Bft) 97,87 %
01.04.2019 04:34 3,1 C 2,2 C 1,7 C 80 % 1021,7 hPa 0,0 l/m 0 min 0 min 0 W/m 9,7 km/h (2 Bft) 97,87 %
01.04.2019 04:36 3,1 C 2,2 C 1,7 C 80 % 1021,7 hPa 0,0 l/m 0 min 0 min 0 W/m 6,4 km/h (2 Bft) 95,65 %
01.04.2019 04:38 3,0 C 2,2 C 1,7 C 80 % 1021,7 hPa 0,0 l/m 0 min 0 min 0 W/m 9,7 km/h (2 Bft) 95,74 %
01.04.2019 04:40 3,0 C 2,2 C 1,7 C 80 % 1021,7 hPa 0,0 l/m 0 min 0 min 0 W/m 9,7 km/h (2 Bft) 97,87 %
01.04.2019 04:42 2,9 C 2,2 C 1,7 C 80 % 1021,7 hPa 0,0 l/m 0 min 0 min 0 W/m 9,7 km/h (2 Bft) 97,87 %
01.04.2019 04:44 2,9 C 2,2 C 1,7 C 80 % 1021,7 hPa 0,0 l/m 0 min 0 min 0 W/m 9,7 km/h (2 Bft) 97,87 %
01.04.2019 04:46 2,9 C 2,2 C 1,7 C 80 % 1021,7 hPa 0,0 l/m 0 min 0 min 0 W/m 9,7 km/h (2 Bft) 95,65 %
01.04.2019 04:48 2,9 C 2,2 C 1,7 C 80 % 1021,7 hPa 0,0 l/m 0 min 0 min 0 W/m 9,7 km/h (2 Bft) 97,87 %
01.04.2019 04:50 2,9 C 2,2 C 1,7 C 80 % 1021,7 hPa 0,0 l/m 0 min 0 min 0 W/m 6,4 km/h (2 Bft) 97,87 %
01.04.2019 04:52 2,8 C 2,2 C 1,7 C 80 % 1021,7 hPa 0,0 l/m 0 min 0 min 0 W/m 12,9 km/h (3 Bft) 95,74 %
01.04.2019 04:54 2,8 C 2,2 C 1,7 C 80 % 1021,7 hPa 0,0 l/m 0 min 0 min 0 W/m 9,7 km/h (2 Bft) 97,87 %
01.04.2019 04:56 2,8 C 2,2 C 1,7 C 80 % 1021,7 hPa 0,0 l/m 0 min 0 min 0 W/m 12,9 km/h (3 Bft) 97,87 %
01.04.2019 04:58 2,8 C 2,2 C 1,7 C 80 % 1021,7 hPa 0,0 l/m 0 min 0 min 0 W/m 9,7 km/h (2 Bft) 97,83 %
01.04.2019 05:00 2,8 C 2,2 C 1,7 C 80 % 1021,7 hPa 0,0 l/m 0 min 0 min 0 W/m 9,7 km/h (2 Bft) 95,74 %
01.04.2019 05:02 2,8 C 1,7 C 1,7 C 80 % 1021,7 hPa 0,0 l/m 0 min 0 min 0 W/m 6,4 km/h (2 Bft) 97,62 %
01.04.2019 05:04 2,7 C 1,7 C 1,7 C 81 % 1021,7 hPa 0,0 l/m 0 min 0 min 0 W/m 9,7 km/h (2 Bft) 95,65 %
01.04.2019 05:05 2,7 C 1,7 C 1,7 C 81 % 1021,7 hPa 0,0 l/m 0 min 0 min 0 W/m 9,7 km/h (2 Bft) 98,25 %
01.04.2019 05:10 2,7 C 1,7 C 1,7 C 81 % 1021,7 hPa 0,0 l/m 0 min 0 min 0 W/m 12,9 km/h (3 Bft) 100,00 %
01.04.2019 05:15 2,7 C 1,7 C 1,7 C 81 % 1021,6 hPa 0,0 l/m 0 min 0 min 0 W/m 9,7 km/h (2 Bft) 100,00 %
01.04.2019 05:16 2,7 C 1,7 C 1,7 C 81 % 1021,6 hPa 0,0 l/m 0 min 0 min 0 W/m 6,4 km/h (2 Bft) 100,00 %
01.04.2019 05:18 2,6 C 1,7 C 1,7 C 81 % 1021,6 hPa 0,0 l/m 0 min 0 min 0 W/m 6,4 km/h (2 Bft) 93,75 %
01.04.2019 05:20 2,6 C 1,7 C 1,7 C 81 % 1021,6 hPa 0,0 l/m 0 min 0 min 0 W/m 9,7 km/h (2 Bft) 97,87 %
01.04.2019 05:22 2,6 C 1,7 C 1,7 C 81 % 1021,6 hPa 0,0 l/m 0 min 0 min 0 W/m 9,7 km/h (2 Bft) 97,87 %
01.04.2019 05:24 2,6 C 1,7 C 1,7 C 81 % 1021,6 hPa 0,0 l/m 0 min 0 min 0 W/m 9,7 km/h (2 Bft) 97,87 %
01.04.2019 05:26 2,6 C 1,7 C 1,1 C 81 % 1021,6 hPa 0,0 l/m 0 min 0 min 0 W/m 9,7 km/h (2 Bft) 95,65 %
01.04.2019 05:28 2,6 C 1,7 C 1,1 C 81 % 1021,5 hPa 0,0 l/m 0 min 0 min 0 W/m 9,7 km/h (2 Bft) 100,00 %
01.04.2019 05:30 2,5 C 1,7 C 1,1 C 81 % 1021,5 hPa 0,0 l/m 0 min 0 min 0 W/m 9,7 km/h (2 Bft) 100,00 %
01.04.2019 05:32 2,5 C 1,7 C 1,1 C 81 % 1021,5 hPa 0,0 l/m 0 min 0 min 0 W/m 12,9 km/h (3 Bft) 100,00 %
01.04.2019 05:34 2,5 C 1,7 C 1,1 C 81 % 1021,4 hPa 0,0 l/m 0 min 0 min 0 W/m 12,9 km/h (3 Bft) 100,00 %
01.04.2019 05:36 2,5 C 1,7 C 1,1 C 81 % 1021,5 hPa 0,0 l/m 0 min 0 min 0 W/m 12,9 km/h (3 Bft) 97,87 %
01.04.2019 05:38 2,4 C 1,7 C 1,1 C 82 % 1021,5 hPa 0,0 l/m 0 min 0 min 0 W/m 6,4 km/h (2 Bft) 100,00 %
01.04.2019 05:40 2,4 C 1,7 C 1,1 C 81 % 1021,5 hPa 0,0 l/m 0 min 0 min 0 W/m 6,4 km/h (2 Bft) 93,02 %
01.04.2019 05:42 2,4 C 1,7 C 1,1 C 81 % 1021,5 hPa 0,0 l/m 0 min 0 min 0 W/m 6,4 km/h (2 Bft) 98,00 %
01.04.2019 05:44 2,4 C 1,7 C 1,1 C 81 % 1021,4 hPa 0,0 l/m 0 min 0 min 0 W/m 12,9 km/h (3 Bft) 97,92 %
01.04.2019 05:46 2,4 C 1,7 C 1,1 C 81 % 1021,5 hPa 0,0 l/m 0 min 0 min 0 W/m 9,7 km/h (2 Bft) 95,74 %
01.04.2019 05:48 2,4 C 1,7 C 1,1 C 81 % 1021,4 hPa 0,0 l/m 0 min 0 min 0 W/m 6,4 km/h (2 Bft) 95,74 %
01.04.2019 05:50 2,4 C 1,7 C 1,1 C 82 % 1021,4 hPa 0,0 l/m 0 min 0 min 0 W/m 6,4 km/h (2 Bft) 95,12 %
01.04.2019 05:52 2,3 C 1,7 C 1,1 C 82 % 1021,4 hPa 0,0 l/m 0 min 0 min 0 W/m 9,7 km/h (2 Bft) 95,92 %
01.04.2019 05:54 2,3 C 1,7 C 1,1 C 82 % 1021,4 hPa 0,0 l/m 0 min 0 min 0 W/m 6,4 km/h (2 Bft) 95,92 %
01.04.2019 05:56 2,3 C 1,7 C 1,1 C 82 % 1021,4 hPa 0,0 l/m 0 min 0 min 0 W/m 6,4 km/h (2 Bft) 95,83 %
01.04.2019 05:58 2,3 C 1,7 C 1,1 C 82 % 1021,4 hPa 0,0 l/m 0 min 0 min 0 W/m 6,4 km/h (2 Bft) 93,62 %
01.04.2019 06:00 2,3 C 1,1 C 1,1 C 82 % 1021,4 hPa 0,0 l/m 0 min 0 min 0 W/m 6,4 km/h (2 Bft) 95,74 %
01.04.2019 06:02 2,3 C 1,1 C 1,1 C 82 % 1021,3 hPa 0,0 l/m 0 min 0 min 0 W/m 6,4 km/h (2 Bft) 97,56 %
01.04.2019 06:04 2,3 C 1,1 C 1,1 C 82 % 1021,4 hPa 0,0 l/m 0 min 0 min 0 W/m 6,4 km/h (2 Bft) 93,62 %
01.04.2019 06:08 2,2 C 1,1 C 1,1 C 82 % 1021,4 hPa 0,0 l/m 0 min 0 min 0 W/m 9,7 km/h (2 Bft) 93,68 %
01.04.2019 06:10 2,2 C 1,1 C 1,1 C 82 % 1021,4 hPa 0,0 l/m 0 min 0 min 0 W/m 6,4 km/h (2 Bft) 95,92 %
01.04.2019 06:12 2,2 C 1,1 C 1,1 C 82 % 1021,3 hPa 0,0 l/m 0 min 0 min 0 W/m 9,7 km/h (2 Bft) 97,92 %
01.04.2019 06:14 2,2 C 1,1 C 1,1 C 82 % 1021,4 hPa 0,0 l/m 0 min 0 min 0 W/m 6,4 km/h (2 Bft) 93,62 %
01.04.2019 06:16 2,2 C 1,1 C 1,1 C 82 % 1021,3 hPa 0,0 l/m 0 min 0 min 0 W/m 12,9 km/h (3 Bft) 95,74 %
01.04.2019 06:18 2,2 C 1,1 C 1,1 C 83 % 1021,4 hPa 0,0 l/m 0 min 0 min 0 W/m 9,7 km/h (2 Bft) 95,24 %
01.04.2019 06:20 2,1 C 1,1 C 1,1 C 83 % 1021,4 hPa 0,0 l/m 0 min 0 min 0 W/m 9,7 km/h (2 Bft) 95,83 %
01.04.2019 06:22 2,1 C 1,1 C 1,1 C 83 % 1021,3 hPa 0,0 l/m 0 min 0 min 0 W/m 9,7 km/h (2 Bft) 95,92 %
01.04.2019 06:24 2,1 C 1,1 C 0,6 C 83 % 1021,3 hPa 0,0 l/m 0 min 0 min 0 W/m 9,7 km/h (2 Bft) 95,83 %
01.04.2019 06:26 2,1 C 1,1 C 1,1 C 83 % 1021,3 hPa 0,0 l/m 0 min 0 min 0 W/m 9,7 km/h (2 Bft) 97,87 %
01.04.2019 06:28 2,1 C 1,1 C 0,6 C 83 % 1021,3 hPa 0,0 l/m 0 min 0 min 0 W/m 9,7 km/h (2 Bft) 97,87 %
01.04.2019 06:30 2,1 C 1,1 C 0,6 C 83 % 1021,3 hPa 0,0 l/m 0 min 0 min 0 W/m 9,7 km/h (2 Bft) 92,86 %
01.04.2019 06:32 2,1 C 1,1 C 0,6 C 83 % 1021,3 hPa 0,0 l/m 0 min 0 min 0 W/m 9,7 km/h (2 Bft) 93,75 %
01.04.2019 06:34 2,0 C 1,1 C 0,6 C 83 % 1021,3 hPa 0,0 l/m 0 min 0 min 0 W/m 6,4 km/h (2 Bft) 97,96 %
01.04.2019 06:36 2,0 C 1,1 C 0,6 C 83 % 1021,3 hPa 0,0 l/m 0 min 0 min 0 W/m 6,4 km/h (2 Bft) 97,87 %
01.04.2019 06:38 2,0 C 1,1 C 0,6 C 83 % 1021,3 hPa 0,0 l/m 0 min 0 min 0 W/m 3,2 km/h (1 Bft) 97,87 %
01.04.2019 06:40 2,0 C 1,1 C 0,6 C 83 % 1021,3 hPa 0,0 l/m 0 min 0 min 0 W/m 9,7 km/h (2 Bft) 97,87 %
01.04.2019 06:42 2,0 C 1,1 C 0,6 C 83 % 1021,3 hPa 0,0 l/m 0 min 0 min 0 W/m 6,4 km/h (2 Bft) 97,67 %
01.04.2019 06:44 1,9 C 1,1 C 0,6 C 83 % 1021,3 hPa 0,0 l/m 0 min 0 min 0 W/m 9,7 km/h (2 Bft) 97,92 %
01.04.2019 06:46 1,9 C 1,1 C 0,6 C 83 % 1021,3 hPa 0,0 l/m 0 min 0 min 0 W/m 9,7 km/h (2 Bft) 100,00 %
01.04.2019 06:48 1,9 C 1,1 C 0,6 C 83 % 1021,3 hPa 0,0 l/m 0 min 0 min 0 W/m 12,9 km/h (3 Bft) 100,00 %
01.04.2019 06:50 1,9 C 1,1 C 0,6 C 83 % 1021,3 hPa 0,0 l/m 0 min 0 min 0 W/m 6,4 km/h (2 Bft) 100,00 %
01.04.2019 06:52 1,9 C 1,1 C 0,6 C 84 % 1021,3 hPa 0,0 l/m 0 min 0 min 0 W/m 3,2 km/h (1 Bft) 100,00 %
01.04.2019 06:54 1,9 C 1,1 C 0,6 C 84 % 1021,3 hPa 0,0 l/m 0 min 0 min 0 W/m 6,4 km/h (2 Bft) 100,00 %
01.04.2019 06:56 1,9 C 1,1 C 0,6 C 84 % 1021,3 hPa 0,0 l/m 0 min 0 min 0 W/m 6,4 km/h (2 Bft) 97,92 %
01.04.2019 06:58 1,9 C 1,1 C 0,6 C 84 % 1021,2 hPa 0,0 l/m 0 min 0 min 0 W/m 6,4 km/h (2 Bft) 100,00 %
01.04.2019 07:00 1,9 C 1,1 C 0,6 C 84 % 1021,2 hPa 0,0 l/m 0 min 0 min 0 W/m 9,7 km/h (2 Bft) 95,65 %
01.04.2019 07:02 1,9 C 1,1 C 0,6 C 84 % 1021,2 hPa 0,0 l/m 0 min 0 min 0 W/m 9,7 km/h (2 Bft) 100,00 %
01.04.2019 07:04 1,8 C 1,1 C 0,6 C 84 % 1021,2 hPa 0,0 l/m 0 min 0 min 0 W/m 6,4 km/h (2 Bft) 100,00 %
01.04.2019 07:06 1,8 C 1,1 C 0,6 C 84 % 1021,2 hPa 0,0 l/m 0 min 0 min 0 W/m 9,7 km/h (2 Bft) 95,24 %
01.04.2019 07:08 1,8 C 1,1 C 0,6 C 84 % 1021,2 hPa 0,0 l/m 0 min 0 min 0 W/m 6,4 km/h (2 Bft) 100,00 %
01.04.2019 07:10 1,8 C 1,1 C 0,6 C 84 % 1021,2 hPa 0,0 l/m 0 min 0 min 0 W/m 9,7 km/h (2 Bft) 100,00 %
01.04.2019 07:12 1,8 C 1,1 C 0,6 C 84 % 1021,1 hPa 0,0 l/m 0 min 0 min 2 W/m 6,4 km/h (2 Bft) 100,00 %
01.04.2019 07:14 1,8 C 1,1 C 0,6 C 84 % 1021,2 hPa 0,0 l/m 0 min 0 min 5 W/m 9,7 km/h (2 Bft) 100,00 %
01.04.2019 07:16 1,8 C 1,1 C 0,6 C 84 % 1021,2 hPa 0,0 l/m 0 min 0 min 6 W/m 9,7 km/h (2 Bft) 97,87 %
01.04.2019 07:18 1,8 C 1,1 C 0,6 C 84 % 1021,2 hPa 0,0 l/m 0 min 0 min 7 W/m 12,9 km/h (3 Bft) 100,00 %
01.04.2019 07:20 1,8 C 1,1 C 0,6 C 84 % 1021,2 hPa 0,0 l/m 0 min 0 min 7 W/m 6,4 km/h (2 Bft) 97,56 %
01.04.2019 07:22 1,8 C 1,1 C 0,6 C 84 % 1021,2 hPa 0,0 l/m 0 min 0 min 9 W/m 9,7 km/h (2 Bft) 97,96 %
01.04.2019 07:24 1,8 C 1,1 C 0,6 C 84 % 1021,2 hPa 0,0 l/m 0 min 0 min 10 W/m 6,4 km/h (2 Bft) 95,92 %
01.04.2019 07:26 1,8 C 1,1 C 0,6 C 84 % 1021,2 hPa 0,0 l/m 0 min 0 min 11 W/m 9,7 km/h (2 Bft) 95,83 %
01.04.2019 07:28 1,8 C 1,1 C 0,6 C 85 % 1021,2 hPa 0,0 l/m 0 min 0 min 11 W/m 6,4 km/h (2 Bft) 93,62 %
01.04.2019 07:30 1,8 C 1,1 C 0,6 C 85 % 1021,2 hPa 0,0 l/m 0 min 0 min 12 W/m 12,9 km/h (3 Bft) 97,87 %
01.04.2019 07:32 1,8 C 1,1 C 0,6 C 85 % 1021,2 hPa 0,0 l/m 0 min 0 min 12 W/m 6,4 km/h (2 Bft) 97,62 %
01.04.2019 07:34 1,8 C 1,1 C 0,6 C 85 % 1021,2 hPa 0,0 l/m 0 min 0 min 14 W/m 6,4 km/h (2 Bft) 97,96 %
01.04.2019 07:36 1,8 C 1,1 C 0,6 C 85 % 1021,2 hPa 0,0 l/m 0 min 0 min 14 W/m 12,9 km/h (3 Bft) 97,96 %
01.04.2019 07:38 1,8 C 1,1 C 0,6 C 85 % 1021,2 hPa 0,0 l/m 0 min 0 min 16 W/m 9,7 km/h (2 Bft) 95,74 %
01.04.2019 07:40 1,8 C 1,1 C 1,1 C 85 % 1021,2 hPa 0,0 l/m 0 min 0 min 17 W/m 9,7 km/h (2 Bft) 97,87 %
01.04.2019 07:42 1,8 C 1,1 C 1,1 C 85 % 1021,3 hPa 0,0 l/m 0 min 0 min 18 W/m 12,9 km/h (3 Bft) 97,87 %
01.04.2019 07:44 1,8 C 1,1 C 1,1 C 85 % 1021,3 hPa 0,0 l/m 0 min 0 min 18 W/m 9,7 km/h (2 Bft) 97,62 %
01.04.2019 07:46 1,8 C 1,1 C 1,1 C 85 % 1021,3 hPa 0,0 l/m 0 min 0 min 19 W/m 12,9 km/h (3 Bft) 93,88 %
01.04.2019 07:48 1,8 C 1,7 C 1,1 C 85 % 1021,3 hPa 0,0 l/m 0 min 0 min 19 W/m 9,7 km/h (2 Bft) 95,92 %
01.04.2019 07:50 1,8 C 1,7 C 1,1 C 85 % 1021,3 hPa 0,0 l/m 0 min 0 min 21 W/m 9,7 km/h (2 Bft) 97,87 %
01.04.2019 07:52 1,8 C 1,7 C 1,1 C 85 % 1021,3 hPa 0,0 l/m 0 min 0 min 21 W/m 12,9 km/h (3 Bft) 93,62 %
01.04.2019 07:54 1,8 C 1,7 C 1,1 C 85 % 1021,3 hPa 0,0 l/m 0 min 0 min 22 W/m 6,4 km/h (2 Bft) 95,74 %
01.04.2019 07:56 1,8 C 1,7 C 1,1 C 85 % 1021,3 hPa 0,0 l/m 0 min 0 min 23 W/m 12,9 km/h (3 Bft) 97,62 %
01.04.2019 07:58 1,8 C 1,7 C 1,1 C 85 % 1021,2 hPa 0,0 l/m 0 min 0 min 24 W/m 12,9 km/h (3 Bft) 94,00 %
01.04.2019 08:00 1,8 C 1,7 C 1,1 C 85 % 1021,3 hPa 0,0 l/m 0 min 0 min 25 W/m 9,7 km/h (2 Bft) 95,74 %
01.04.2019 08:02 1,8 C 1,7 C 1,1 C 85 % 1021,3 hPa 0,0 l/m 0 min 0 min 25 W/m 9,7 km/h (2 Bft) 95,83 %
01.04.2019 08:04 1,9 C 1,7 C 1,1 C 85 % 1021,3 hPa 0,0 l/m 0 min 0 min 26 W/m 6,4 km/h (2 Bft) 95,74 %
01.04.2019 08:06 1,9 C 1,7 C 1,1 C 85 % 1021,4 hPa 0,0 l/m 0 min 0 min 26 W/m 9,7 km/h (2 Bft) 97,87 %
01.04.2019 08:08 1,9 C 1,7 C 1,1 C 85 % 1021,4 hPa 0,0 l/m 0 min 0 min 26 W/m 9,7 km/h (2 Bft) 97,56 %
01.04.2019 08:10 1,9 C 1,7 C 1,1 C 85 % 1021,4 hPa 0,0 l/m 0 min 0 min 28 W/m 6,4 km/h (2 Bft) 95,92 %
01.04.2019 08:12 1,9 C 1,7 C 1,1 C 85 % 1021,4 hPa 0,0 l/m 0 min 0 min 28 W/m 9,7 km/h (2 Bft) 97,96 %
01.04.2019 08:14 1,9 C 1,7 C 1,1 C 85 % 1021,4 hPa 0,0 l/m 0 min 0 min 29 W/m 9,7 km/h (2 Bft) 97,92 %
01.04.2019 08:16 1,9 C 2,2 C 1,1 C 85 % 1021,4 hPa 0,0 l/m 0 min 0 min 30 W/m 12,9 km/h (3 Bft) 97,87 %
01.04.2019 08:18 2,0 C 2,2 C 1,7 C 85 % 1021,4 hPa 0,0 l/m 0 min 0 min 30 W/m 9,7 km/h (2 Bft) 95,74 %
01.04.2019 08:20 2,0 C 2,2 C 1,7 C 85 % 1021,5 hPa 0,0 l/m 0 min 0 min 32 W/m 6,4 km/h (2 Bft) 97,56 %
01.04.2019 08:22 2,0 C 2,2 C 1,7 C 85 % 1021,4 hPa 0,0 l/m 0 min 0 min 32 W/m 9,7 km/h (2 Bft) 95,92 %
01.04.2019 08:24 2,1 C 2,2 C 1,7 C 85 % 1021,5 hPa 0,0 l/m 0 min 0 min 32 W/m 6,4 km/h (2 Bft) 97,96 %
01.04.2019 08:26 2,1 C 2,2 C 1,7 C 85 % 1021,4 hPa 0,0 l/m 0 min 0 min 33 W/m 16,1 km/h (3 Bft) 97,92 %
01.04.2019 08:28 2,1 C 2,2 C 1,7 C 85 % 1021,4 hPa 0,0 l/m 0 min 0 min 33 W/m 9,7 km/h (2 Bft) 97,87 %
01.04.2019 08:30 2,2 C 2,2 C 1,7 C 85 % 1021,5 hPa 0,0 l/m 0 min 0 min 34 W/m 9,7 km/h (2 Bft) 97,87 %
01.04.2019 08:32 2,2 C 2,2 C 1,7 C 85 % 1021,4 hPa 0,0 l/m 0 min 0 min 35 W/m 6,4 km/h (2 Bft) 95,24 %
01.04.2019 08:34 2,2 C 2,2 C 1,7 C 85 % 1021,4 hPa 0,0 l/m 0 min 0 min 35 W/m 6,4 km/h (2 Bft) 97,96 %
01.04.2019 08:36 2,3 C 2,8 C 1,7 C 85 % 1021,4 hPa 0,0 l/m 0 min 0 min 36 W/m 9,7 km/h (2 Bft) 97,96 %
01.04.2019 08:38 2,3 C 2,8 C 1,7 C 85 % 1021,4 hPa 0,0 l/m 0 min 0 min 37 W/m 9,7 km/h (2 Bft) 97,92 %
01.04.2019 08:40 2,3 C 2,8 C 1,7 C 85 % 1021,4 hPa 0,0 l/m 0 min 0 min 37 W/m 6,4 km/h (2 Bft) 97,87 %
01.04.2019 08:42 2,4 C 2,8 C 1,7 C 85 % 1021,4 hPa 0,0 l/m 0 min 0 min 37 W/m 6,4 km/h (2 Bft) 95,74 %
01.04.2019 08:44 2,4 C 2,8 C 2,2 C 85 % 1021,4 hPa 0,0 l/m 0 min 0 min 39 W/m 9,7 km/h (2 Bft) 97,56 %
01.04.2019 08:46 2,4 C 2,8 C 2,2 C 85 % 1021,4 hPa 0,0 l/m 0 min 0 min 39 W/m 12,9 km/h (3 Bft) 100,00 %
01.04.2019 08:48 2,5 C 2,8 C 2,2 C 85 % 1021,4 hPa 0,0 l/m 0 min 0 min 40 W/m 12,9 km/h (3 Bft) 100,00 %
01.04.2019 08:50 2,5 C 2,8 C 2,2 C 85 % 1021,3 hPa 0,0 l/m 0 min 0 min 40 W/m 9,7 km/h (2 Bft) 95,83 %
01.04.2019 08:52 2,6 C 2,8 C 2,2 C 85 % 1021,3 hPa 0,0 l/m 0 min 0 min 40 W/m 9,7 km/h (2 Bft) 100,00 %
01.04.2019 08:54 2,6 C 3,3 C 2,2 C 85 % 1021,4 hPa 0,0 l/m 0 min 0 min 40 W/m 9,7 km/h (2 Bft) 97,87 %
01.04.2019 08:56 2,7 C 3,3 C 2,2 C 85 % 1021,3 hPa 0,0 l/m 0 min 0 min 41 W/m 9,7 km/h (2 Bft) 97,56 %
01.04.2019 08:58 2,7 C 3,3 C 2,2 C 85 % 1021,3 hPa 0,0 l/m 0 min 0 min 42 W/m 12,9 km/h (3 Bft) 100,00 %
01.04.2019 09:00 2,8 C 3,3 C 2,8 C 85 % 1021,3 hPa 0,0 l/m 0 min 0 min 42 W/m 9,7 km/h (2 Bft) 100,00 %
01.04.2019 09:02 2,8 C 3,3 C 2,8 C 85 % 1021,4 hPa 0,0 l/m 0 min 0 min 42 W/m 9,7 km/h (2 Bft) 100,00 %
01.04.2019 09:04 2,9 C 3,3 C 2,8 C 85 % 1021,4 hPa 0,0 l/m 0 min 0 min 43 W/m 9,7 km/h (2 Bft) 100,00 %
01.04.2019 09:06 2,9 C 3,3 C 2,8 C 85 % 1021,3 hPa 0,0 l/m 0 min 0 min 44 W/m 9,7 km/h (2 Bft) 100,00 %
01.04.2019 09:08 3,0 C 3,9 C 2,8 C 85 % 1021,3 hPa 0,0 l/m 0 min 0 min 44 W/m 12,9 km/h (3 Bft) 100,00 %
01.04.2019 09:10 3,1 C 3,9 C 2,8 C 85 % 1021,2 hPa 0,0 l/m 0 min 0 min 44 W/m 9,7 km/h (2 Bft) 95,74 %
01.04.2019 09:12 3,1 C 3,9 C 2,8 C 85 % 1021,3 hPa 0,0 l/m 0 min 0 min 46 W/m 6,4 km/h (2 Bft) 97,67 %
01.04.2019 09:14 3,2 C 3,9 C 2,8 C 85 % 1021,4 hPa 0,0 l/m 0 min 0 min 46 W/m 9,7 km/h (2 Bft) 97,92 %
01.04.2019 09:16 3,2 C 3,9 C 2,8 C 85 % 1021,3 hPa 0,0 l/m 0 min 0 min 46 W/m 9,7 km/h (2 Bft) 97,96 %
01.04.2019 09:18 3,3 C 4,4 C 3,3 C 85 % 1021,3 hPa 0,0 l/m 0 min 0 min 47 W/m 12,9 km/h (3 Bft) 97,92 %
01.04.2019 09:20 3,3 C 4,4 C 3,3 C 85 % 1021,3 hPa 0,0 l/m 0 min 0 min 47 W/m 12,9 km/h (3 Bft) 95,74 %
01.04.2019 09:22 3,4 C 4,4 C 3,3 C 85 % 1021,3 hPa 0,0 l/m 0 min 0 min 47 W/m 6,4 km/h (2 Bft) 97,87 %
01.04.2019 09:24 3,5 C 4,4 C 3,3 C 84 % 1021,3 hPa 0,0 l/m 0 min 0 min 49 W/m 9,7 km/h (2 Bft) 97,62 %
01.04.2019 09:26 3,6 C 4,4 C 3,3 C 84 % 1021,2 hPa 0,0 l/m 0 min 0 min 49 W/m 9,7 km/h (2 Bft) 97,92 %
01.04.2019 09:28 3,7 C 5,0 C 3,3 C 84 % 1021,3 hPa 0,0 l/m 0 min 0 min 49 W/m 9,7 km/h (2 Bft) 95,92 %
01.04.2019 09:30 3,7 C 5,0 C 3,9 C 84 % 1021,2 hPa 0,0 l/m 0 min 0 min 50 W/m 9,7 km/h (2 Bft) 100,00 %
01.04.2019 09:32 3,8 C 6,7 C 3,9 C 84 % 1021,3 hPa 0,0 l/m 0 min 0 min 51 W/m 6,4 km/h (2 Bft) 95,74 %
01.04.2019 09:34 3,9 C 8,9 C 3,9 C 84 % 1021,3 hPa 0,0 l/m 0 min 0 min 51 W/m 9,7 km/h (2 Bft) 97,67 %
01.04.2019 09:36 4,0 C 9,4 C 3,9 C 84 % 1021,2 hPa 0,0 l/m 0 min 0 min 53 W/m 9,7 km/h (2 Bft) 97,92 %
01.04.2019 09:38 4,1 C 10,0 C 3,9 C 84 % 1021,2 hPa 0,0 l/m 0 min 0 min 53 W/m 16,1 km/h (3 Bft) 97,96 %
01.04.2019 09:40 4,2 C 11,1 C 4,4 C 84 % 1021,2 hPa 0,0 l/m 0 min 0 min 54 W/m 9,7 km/h (2 Bft) 97,92 %
01.04.2019 09:42 4,4 C 11,7 C 4,4 C 84 % 1021,2 hPa 0,0 l/m 0 min 0 min 59 W/m 9,7 km/h (2 Bft) 97,83 %
01.04.2019 09:44 4,6 C 11,7 C 4,4 C 83 % 1021,2 hPa 0,0 l/m 0 min 0 min 70 W/m 9,7 km/h (2 Bft) 97,87 %
01.04.2019 09:46 4,8 C 11,7 C 4,4 C 83 % 1021,2 hPa 0,0 l/m 0 min 0 min 86 W/m 12,9 km/h (3 Bft) 97,67 %
01.04.2019 09:48 4,9 C 11,7 C 5,0 C 83 % 1021,2 hPa 0,0 l/m 0 min 0 min 107 W/m 9,7 km/h (2 Bft) 95,83 %
01.04.2019 09:50 5,1 C 12,2 C 5,0 C 82 % 1021,2 hPa 0,0 l/m 0 min 0 min 136 W/m 9,7 km/h (2 Bft) 95,92 %
01.04.2019 09:52 5,3 C 12,8 C 5,6 C 82 % 1021,1 hPa 0,0 l/m 0 min 0 min 171 W/m 9,7 km/h (2 Bft) 95,83 %
01.04.2019 09:54 5,5 C 12,8 C 6,7 C 82 % 1021,1 hPa 0,0 l/m 2 min 0 min 210 W/m 9,7 km/h (2 Bft) 95,65 %
01.04.2019 09:56 5,7 C 13,3 C 8,3 C 81 % 1021,1 hPa 0,0 l/m 2 min 0 min 251 W/m 12,9 km/h (3 Bft) 97,87 %
01.04.2019 09:58 5,9 C 13,3 C 10,0 C 80 % 1021,1 hPa 0,0 l/m 2 min 0 min 293 W/m 9,7 km/h (2 Bft) 97,87 %
01.04.2019 10:00 6,1 C 13,9 C 11,1 C 80 % 1021,1 hPa 0,0 l/m 2 min 0 min 329 W/m 9,7 km/h (2 Bft) 95,74 %
01.04.2019 10:02 6,3 C 13,9 C 11,7 C 79 % 1021,1 hPa 0,0 l/m 2 min 0 min 362 W/m 9,7 km/h (2 Bft) 97,67 %
01.04.2019 10:04 6,4 C 13,9 C 12,2 C 79 % 1021,0 hPa 0,0 l/m 2 min 0 min 386 W/m 9,7 km/h (2 Bft) 97,87 %
01.04.2019 10:06 6,7 C 13,3 C 12,2 C 77 % 1021,0 hPa 0,0 l/m 2 min 0 min 413 W/m 12,9 km/h (3 Bft) 96,00 %
01.04.2019 10:08 6,8 C 14,4 C 12,2 C 77 % 1021,1 hPa 0,0 l/m 2 min 0 min 423 W/m 9,7 km/h (2 Bft) 97,87 %
01.04.2019 10:10 7,0 C 14,4 C 12,8 C 77 % 1021,0 hPa 0,0 l/m 2 min 0 min 432 W/m 9,7 km/h (2 Bft) 97,22 %
01.04.2019 10:12 7,2 C 14,4 C 13,3 C 76 % 1021,0 hPa 0,0 l/m 2 min 0 min 437 W/m 19,3 km/h (3 Bft) 95,74 %
01.04.2019 10:14 7,3 C 14,4 C 13,3 C 75 % 1021,1 hPa 0,0 l/m 2 min 0 min 443 W/m 12,9 km/h (3 Bft) 97,87 %
01.04.2019 10:16 7,4 C 15,0 C 13,9 C 75 % 1021,1 hPa 0,0 l/m 2 min 0 min 447 W/m 12,9 km/h (3 Bft) 95,12 %
01.04.2019 10:18 7,6 C 15,0 C 13,9 C 74 % 1021,0 hPa 0,0 l/m 2 min 0 min 452 W/m 9,7 km/h (2 Bft) 97,96 %
01.04.2019 10:20 7,7 C 15,0 C 13,9 C 74 % 1021,1 hPa 0,0 l/m 2 min 0 min 459 W/m 9,7 km/h (2 Bft) 97,96 %
01.04.2019 10:22 7,8 C 15,0 C 13,9 C 74 % 1021,1 hPa 0,0 l/m 2 min 0 min 465 W/m 12,9 km/h (3 Bft) 100,00 %
01.04.2019 10:24 7,9 C 15,0 C 14,4 C 73 % 1021,1 hPa 0,0 l/m 2 min 0 min 471 W/m 9,7 km/h (2 Bft) 100,00 %
01.04.2019 10:26 8,0 C 15,6 C 14,4 C 73 % 1021,0 hPa 0,0 l/m 2 min 0 min 476 W/m 12,9 km/h (3 Bft) 100,00 %
01.04.2019 10:28 8,2 C 15,6 C 14,4 C 72 % 1021,0 hPa 0,0 l/m 2 min 0 min 480 W/m 12,9 km/h (3 Bft) 97,56 %
01.04.2019 10:30 8,3 C 16,1 C 15,0 C 73 % 1021,0 hPa 0,0 l/m 2 min 0 min 485 W/m 9,7 km/h (2 Bft) 100,00 %
01.04.2019 10:32 8,4 C 15,6 C 13,9 C 72 % 1021,0 hPa 0,0 l/m 2 min 0 min 488 W/m 16,1 km/h (3 Bft) 100,00 %
01.04.2019 10:34 8,5 C 15,6 C 13,9 C 71 % 1021,0 hPa 0,0 l/m 2 min 0 min 491 W/m 6,4 km/h (2 Bft) 97,96 %
01.04.2019 10:36 8,7 C 15,6 C 14,4 C 71 % 1020,9 hPa 0,0 l/m 2 min 0 min 495 W/m 9,7 km/h (2 Bft) 100,00 %
01.04.2019 10:38 8,7 C 16,1 C 15,0 C 71 % 1020,9 hPa 0,0 l/m 2 min 0 min 503 W/m 9,7 km/h (2 Bft) 100,00 %
01.04.2019 10:40 8,9 C 17,2 C 15,0 C 71 % 1020,8 hPa 0,0 l/m 2 min 0 min 511 W/m 9,7 km/h (2 Bft) 100,00 %
01.04.2019 10:42 9,0 C 16,7 C 15,0 C 71 % 1020,9 hPa 0,0 l/m 2 min 0 min 515 W/m 9,7 km/h (2 Bft) 95,74 %
01.04.2019 10:44 9,1 C 16,1 C 15,0 C 69 % 1020,8 hPa 0,0 l/m 2 min 0 min 520 W/m 9,7 km/h (2 Bft) 100,00 %
01.04.2019 10:46 9,2 C 16,7 C 15,0 C 70 % 1020,8 hPa 0,0 l/m 2 min 0 min 526 W/m 6,4 km/h (2 Bft) 100,00 %
01.04.2019 10:48 9,3 C 16,7 C 15,0 C 70 % 1020,8 hPa 0,0 l/m 2 min 0 min 530 W/m 12,9 km/h (3 Bft) 100,00 %
01.04.2019 10:50 9,4 C 16,1 C 15,0 C 68 % 1020,8 hPa 0,0 l/m 2 min 0 min 536 W/m 16,1 km/h (3 Bft) 100,00 %
01.04.2019 10:52 9,4 C 16,7 C 15,0 C 68 % 1020,8 hPa 0,0 l/m 2 min 0 min 541 W/m 12,9 km/h (3 Bft) 100,00 %
01.04.2019 10:54 9,5 C 17,2 C 16,1 C 69 % 1020,8 hPa 0,0 l/m 2 min 0 min 544 W/m 9,7 km/h (2 Bft) 100,00 %
01.04.2019 10:56 9,6 C 17,2 C 16,7 C 69 % 1020,8 hPa 0,0 l/m 2 min 0 min 550 W/m 19,3 km/h (3 Bft) 100,00 %
01.04.2019 10:58 9,7 C 17,2 C 16,7 C 69 % 1020,7 hPa 0,0 l/m 2 min 0 min 555 W/m 9,7 km/h (2 Bft) 100,00 %
01.04.2019 11:00 9,8 C 17,2 C 16,7 C 68 % 1020,8 hPa 0,0 l/m 2 min 0 min 558 W/m 16,1 km/h (3 Bft) 100,00 %
01.04.2019 11:02 9,9 C 17,8 C 16,7 C 68 % 1020,7 hPa 0,0 l/m 2 min 0 min 562 W/m 9,7 km/h (2 Bft) 100,00 %
01.04.2019 11:04 10,1 C 18,3 C 17,2 C 69 % 1020,7 hPa 0,0 l/m 2 min 0 min 569 W/m 9,7 km/h (2 Bft) 100,00 %
01.04.2019 11:06 10,2 C 18,9 C 17,2 C 68 % 1020,6 hPa 0,0 l/m 2 min 0 min 576 W/m 16,1 km/h (3 Bft) 100,00 %
01.04.2019 11:08 10,3 C 17,8 C 16,7 C 67 % 1020,7 hPa 0,0 l/m 2 min 0 min 580 W/m 9,7 km/h (2 Bft) 100,00 %
01.04.2019 11:10 10,3 C 17,8 C 16,7 C 67 % 1020,7 hPa 0,0 l/m 2 min 0 min 584 W/m 12,9 km/h (3 Bft) 100,00 %
01.04.2019 11:12 10,4 C 17,8 C 16,1 C 66 % 1020,6 hPa 0,0 l/m 2 min 0 min 589 W/m 12,9 km/h (3 Bft) 100,00 %
01.04.2019 11:14 10,5 C 18,3 C 16,7 C 66 % 1020,6 hPa 0,0 l/m 2 min 0 min 593 W/m 12,9 km/h (3 Bft) 100,00 %
01.04.2019 11:16 10,6 C 18,9 C 16,7 C 66 % 1020,5 hPa 0,0 l/m 2 min 0 min 599 W/m 12,9 km/h (3 Bft) 97,96 %
01.04.2019 11:18 10,7 C 19,4 C 16,7 C 67 % 1020,6 hPa 0,0 l/m 2 min 0 min 602 W/m 9,7 km/h (2 Bft) 100,00 %
01.04.2019 11:20 10,8 C 19,4 C 17,2 C 67 % 1020,5 hPa 0,0 l/m 2 min 0 min 607 W/m 9,7 km/h (2 Bft) 100,00 %
01.04.2019 11:22 10,9 C 18,9 C 15,6 C 67 % 1020,6 hPa 0,0 l/m 2 min 0 min 610 W/m 9,7 km/h (2 Bft) 100,00 %
01.04.2019 11:24 11,0 C 18,9 C 13,3 C 65 % 1020,5 hPa 0,0 l/m 2 min 0 min 615 W/m 9,7 km/h (2 Bft) 100,00 %
01.04.2019 11:26 11,1 C 18,9 C 12,2 C 65 % 1020,5 hPa 0,0 l/m 2 min 0 min 619 W/m 6,4 km/h (2 Bft) 97,83 %
01.04.2019 11:28 11,2 C 19,4 C 12,8 C 65 % 1020,4 hPa 0,0 l/m 2 min 0 min 624 W/m 9,7 km/h (2 Bft) 97,96 %
01.04.2019 11:30 11,3 C 19,4 C 12,2 C 66 % 1020,5 hPa 0,0 l/m 2 min 0 min 628 W/m 16,1 km/h (3 Bft) 100,00 %
01.04.2019 11:32 11,4 C 19,4 C 11,7 C 65 % 1020,5 hPa 0,0 l/m 2 min 0 min 634 W/m 16,1 km/h (3 Bft) 97,87 %
01.04.2019 11:34 11,5 C 20,0 C 11,7 C 65 % 1020,4 hPa 0,0 l/m 2 min 0 min 636 W/m 9,7 km/h (2 Bft) 100,00 %
01.04.2019 11:36 11,7 C 19,4 C 11,7 C 64 % 1020,4 hPa 0,0 l/m 2 min 0 min 642 W/m 9,7 km/h (2 Bft) 100,00 %
01.04.2019 11:38 11,7 C 20,0 C 11,7 C 64 % 1020,4 hPa 0,0 l/m 2 min 0 min 645 W/m 9,7 km/h (2 Bft) 100,00 %
01.04.2019 11:40 11,8 C 19,4 C 11,7 C 64 % 1020,3 hPa 0,0 l/m 2 min 0 min 650 W/m 9,7 km/h (2 Bft) 100,00 %
01.04.2019 11:42 11,9 C 18,9 C 11,7 C 64 % 1020,3 hPa 0,0 l/m 2 min 0 min 653 W/m 12,9 km/h (3 Bft) 95,92 %
01.04.2019 11:44 12,0 C 19,4 C 11,7 C 64 % 1020,4 hPa 0,0 l/m 2 min 0 min 655 W/m 9,7 km/h (2 Bft) 100,00 %
01.04.2019 11:46 12,1 C 18,9 C 11,7 C 62 % 1020,3 hPa 0,0 l/m 2 min 0 min 660 W/m 9,7 km/h (2 Bft) 100,00 %
01.04.2019 11:48 12,1 C 18,9 C 11,1 C 62 % 1020,3 hPa 0,0 l/m 2 min 0 min 662 W/m 9,7 km/h (2 Bft) 100,00 %
01.04.2019 11:50 12,1 C 20,0 C 11,7 C 63 % 1020,3 hPa 0,0 l/m 2 min 0 min 665 W/m 9,7 km/h (2 Bft) 100,00 %
01.04.2019 11:52 12,2 C 20,0 C 11,7 C 62 % 1020,2 hPa 0,0 l/m 2 min 0 min 669 W/m 6,4 km/h (2 Bft) 97,96 %
01.04.2019 11:54 12,3 C 20,0 C 11,7 C 63 % 1020,2 hPa 0,0 l/m 2 min 0 min 673 W/m 9,7 km/h (2 Bft) 97,96 %
01.04.2019 11:56 12,4 C 20,0 C 11,7 C 63 % 1020,1 hPa 0,0 l/m 2 min 0 min 674 W/m 6,4 km/h (2 Bft) 97,92 %
01.04.2019 11:58 12,4 C 20,0 C 11,7 C 62 % 1020,1 hPa 0,0 l/m 2 min 0 min 678 W/m 6,4 km/h (2 Bft) 97,87 %
01.04.2019 12:00 12,6 C 21,1 C 11,7 C 63 % 1020,1 hPa 0,0 l/m 2 min 0 min 679 W/m 12,9 km/h (3 Bft) 93,62 %
01.04.2019 12:02 12,7 C 22,2 C 12,2 C 64 % 1020,0 hPa 0,0 l/m 2 min 0 min 687 W/m 12,9 km/h (3 Bft) 95,12 %
01.04.2019 12:04 12,8 C 22,2 C 12,2 C 63 % 1020,1 hPa 0,0 l/m 2 min 0 min 692 W/m 6,4 km/h (2 Bft) 95,74 %
01.04.2019 12:07 13,0 C 21,7 C 12,2 C 62 % 1020,0 hPa 0,0 l/m 3 min 0 min 693 W/m 9,7 km/h (2 Bft) 95,40 %
01.04.2019 12:10 13,1 C 21,1 C 12,2 C 61 % 1020,0 hPa 0,0 l/m 3 min 0 min 695 W/m 12,9 km/h (3 Bft) 94,92 %
01.04.2019 12:12 13,1 C 19,4 C 12,2 C 60 % 1019,9 hPa 0,0 l/m 2 min 0 min 700 W/m 12,9 km/h (3 Bft) 95,65 %
01.04.2019 12:14 13,2 C 19,4 C 12,2 C 60 % 1020,0 hPa 0,0 l/m 2 min 0 min 701 W/m 9,7 km/h (2 Bft) 95,83 %
01.04.2019 12:16 13,2 C 21,1 C 12,2 C 60 % 1019,9 hPa 0,0 l/m 2 min 0 min 705 W/m 9,7 km/h (2 Bft) 93,48 %
01.04.2019 12:18 13,2 C 20,6 C 12,2 C 59 % 1019,9 hPa 0,0 l/m 2 min 0 min 708 W/m 12,9 km/h (3 Bft) 95,74 %
01.04.2019 12:20 13,2 C 20,0 C 12,2 C 60 % 1019,9 hPa 0,0 l/m 2 min 0 min 709 W/m 9,7 km/h (2 Bft) 95,35 %
01.04.2019 12:22 13,3 C 20,0 C 12,2 C 60 % 1019,9 hPa 0,0 l/m 2 min 0 min 710 W/m 12,9 km/h (3 Bft) 95,92 %
01.04.2019 12:24 13,3 C 20,6 C 12,8 C 60 % 1019,8 hPa 0,0 l/m 2 min 0 min 715 W/m 9,7 km/h (2 Bft) 95,83 %
01.04.2019 12:26 13,4 C 20,0 C 12,8 C 59 % 1019,9 hPa 0,0 l/m 2 min 0 min 719 W/m 9,7 km/h (2 Bft) 93,75 %
01.04.2019 12:28 13,4 C 21,1 C 12,8 C 62 % 1019,8 hPa 0,0 l/m 2 min 0 min 720 W/m 9,7 km/h (2 Bft) 93,48 %
01.04.2019 12:30 13,6 C 22,2 C 13,3 C 62 % 1019,8 hPa 0,0 l/m 2 min 0 min 721 W/m 12,9 km/h (3 Bft) 95,74 %
01.04.2019 12:32 13,6 C 21,7 C 13,3 C 60 % 1019,7 hPa 0,0 l/m 2 min 0 min 727 W/m 12,9 km/h (3 Bft) 97,73 %
01.04.2019 12:34 13,7 C 21,1 C 13,3 C 60 % 1019,7 hPa 0,0 l/m 2 min 0 min 730 W/m 12,9 km/h (3 Bft) 95,92 %
01.04.2019 12:36 13,8 C 22,8 C 13,3 C 61 % 1019,7 hPa 0,0 l/m 2 min 0 min 725 W/m 12,9 km/h (3 Bft) 96,67 %
01.04.2019 12:38 13,8 C 22,8 C 13,3 C 60 % 1019,6 hPa 0,0 l/m 2 min 0 min 731 W/m 12,9 km/h (3 Bft) 94,29 %
01.04.2019 12:40 13,9 C 22,2 C 13,3 C 60 % 1019,5 hPa 0,0 l/m 2 min 0 min 734 W/m 9,7 km/h (2 Bft) 95,65 %
01.04.2019 12:42 14,0 C 21,7 C 13,9 C 60 % 1019,5 hPa 0,0 l/m 2 min 0 min 737 W/m 12,9 km/h (3 Bft) 95,24 %
01.04.2019 12:44 14,1 C 22,2 C 13,9 C 60 % 1019,4 hPa 0,0 l/m 2 min 0 min 738 W/m 12,9 km/h (3 Bft) 100,00 %
01.04.2019 12:46 14,2 C 21,7 C 13,9 C 59 % 1019,5 hPa 0,0 l/m 2 min 0 min 738 W/m 12,9 km/h (3 Bft) 97,96 %
01.04.2019 12:48 14,2 C 22,2 C 13,9 C 58 % 1019,4 hPa 0,0 l/m 2 min 0 min 739 W/m 9,7 km/h (2 Bft) 97,92 %
01.04.2019 12:50 14,2 C 21,7 C 13,9 C 59 % 1019,4 hPa 0,0 l/m 2 min 0 min 743 W/m 9,7 km/h (2 Bft) 100,00 %
01.04.2019 12:52 14,2 C 22,2 C 13,9 C 60 % 1019,4 hPa 0,0 l/m 2 min 0 min 744 W/m 9,7 km/h (2 Bft) 100,00 %
01.04.2019 12:54 14,2 C 21,1 C 13,9 C 58 % 1019,4 hPa 0,0 l/m 2 min 0 min 748 W/m 16,1 km/h (3 Bft) 100,00 %
01.04.2019 12:56 14,2 C 20,0 C 13,9 C 58 % 1019,3 hPa 0,0 l/m 2 min 0 min 749 W/m 12,9 km/h (3 Bft) 100,00 %
01.04.2019 12:58 14,2 C 20,6 C 13,3 C 57 % 1019,2 hPa 0,0 l/m 2 min 0 min 751 W/m 9,7 km/h (2 Bft) 97,96 %
01.04.2019 13:00 14,2 C 22,2 C 13,3 C 58 % 1019,3 hPa 0,0 l/m 2 min 0 min 753 W/m 9,7 km/h (2 Bft) 100,00 %
01.04.2019 13:02 14,3 C 22,8 C 13,9 C 59 % 1019,2 hPa 0,0 l/m 2 min 0 min 752 W/m 9,7 km/h (2 Bft) 98,00 %
01.04.2019 13:04 14,4 C 22,2 C 14,4 C 58 % 1019,2 hPa 0,0 l/m 2 min 0 min 754 W/m 9,7 km/h (2 Bft) 97,83 %
01.04.2019 13:06 14,5 C 23,3 C 14,4 C 59 % 1019,3 hPa 0,0 l/m 2 min 0 min 753 W/m 9,7 km/h (2 Bft) 100,00 %
01.04.2019 13:08 14,6 C 22,8 C 14,4 C 58 % 1019,2 hPa 0,0 l/m 2 min 0 min 755 W/m 9,7 km/h (2 Bft) 100,00 %
01.04.2019 13:10 14,6 C 22,2 C 15,0 C 58 % 1019,2 hPa 0,0 l/m 2 min 0 min 758 W/m 12,9 km/h (3 Bft) 100,00 %
01.04.2019 13:12 14,7 C 22,8 C 14,4 C 58 % 1019,1 hPa 0,0 l/m 2 min 0 min 758 W/m 9,7 km/h (2 Bft) 100,00 %
01.04.2019 13:14 14,8 C 23,3 C 15,0 C 59 % 1019,1 hPa 0,0 l/m 2 min 0 min 758 W/m 16,1 km/h (3 Bft) 100,00 %
01.04.2019 13:16 14,9 C 22,8 C 15,0 C 58 % 1019,0 hPa 0,0 l/m 2 min 0 min 762 W/m 19,3 km/h (3 Bft) 97,87 %
01.04.2019 13:18 14,9 C 23,3 C 14,4 C 58 % 1019,1 hPa 0,0 l/m 2 min 0 min 760 W/m 12,9 km/h (3 Bft) 100,00 %
01.04.2019 13:20 15,0 C 22,8 C 14,4 C 57 % 1019,0 hPa 0,0 l/m 2 min 0 min 760 W/m 12,9 km/h (3 Bft) 100,00 %
01.04.2019 13:22 15,1 C 23,3 C 15,0 C 58 % 1019,1 hPa 0,0 l/m 2 min 0 min 761 W/m 12,9 km/h (3 Bft) 100,00 %
01.04.2019 13:24 15,2 C 23,3 C 15,0 C 57 % 1019,0 hPa 0,0 l/m 2 min 0 min 762 W/m 12,9 km/h (3 Bft) 100,00 %
01.04.2019 13:26 15,3 C 23,9 C 15,0 C 57 % 1019,0 hPa 0,0 l/m 2 min 0 min 765 W/m 12,9 km/h (3 Bft) 100,00 %
01.04.2019 13:28 15,4 C 24,4 C 16,1 C 58 % 1019,0 hPa 0,0 l/m 2 min 0 min 765 W/m 9,7 km/h (2 Bft) 100,00 %
01.04.2019 13:30 15,5 C 24,4 C 18,9 C 58 % 1019,0 hPa 0,0 l/m 2 min 0 min 762 W/m 9,7 km/h (2 Bft) 100,00 %
01.04.2019 13:32 15,6 C 23,3 C 20,6 C 55 % 1019,0 hPa 0,0 l/m 2 min 0 min 764 W/m 16,1 km/h (3 Bft) 100,00 %
01.04.2019 13:34 15,6 C 23,3 C 21,7 C 55 % 1018,9 hPa 0,0 l/m 2 min 0 min 764 W/m 12,9 km/h (3 Bft) 100,00 %
01.04.2019 13:36 15,7 C 23,9 C 22,8 C 56 % 1018,9 hPa 0,0 l/m 2 min 0 min 763 W/m 12,9 km/h (3 Bft) 98,39 %
01.04.2019 13:38 15,7 C 23,9 C 24,4 C 57 % 1018,8 hPa 0,0 l/m 2 min 0 min 765 W/m 9,7 km/h (2 Bft) 100,00 %
01.04.2019 13:40 15,8 C 25,0 C 24,4 C 57 % 1018,7 hPa 0,0 l/m 2 min 0 min 763 W/m 12,9 km/h (3 Bft) 100,00 %
01.04.2019 13:42 15,9 C 22,8 C 24,4 C 56 % 1018,8 hPa 0,0 l/m 2 min 0 min 766 W/m 9,7 km/h (2 Bft) 97,87 %
01.04.2019 13:44 15,9 C 21,7 C 23,3 C 54 % 1018,8 hPa 0,0 l/m 2 min 0 min 765 W/m 12,9 km/h (3 Bft) 100,00 %
01.04.2019 13:46 15,8 C 21,1 C 22,8 C 54 % 1018,7 hPa 0,0 l/m 2 min 0 min 764 W/m 12,9 km/h (3 Bft) 97,92 %
01.04.2019 13:48 15,8 C 22,2 C 23,9 C 55 % 1018,7 hPa 0,0 l/m 2 min 0 min 763 W/m 9,7 km/h (2 Bft) 100,00 %
01.04.2019 13:50 15,8 C 23,3 C 25,0 C 58 % 1018,7 hPa 0,0 l/m 2 min 0 min 762 W/m 9,7 km/h (2 Bft) 100,00 %
01.04.2019 13:52 15,9 C 22,8 C 25,0 C 55 % 1018,7 hPa 0,0 l/m 2 min 0 min 762 W/m 9,7 km/h (2 Bft) 100,00 %
01.04.2019 13:54 15,9 C 22,8 C 24,4 C 55 % 1018,6 hPa 0,0 l/m 2 min 0 min 765 W/m 6,4 km/h (2 Bft) 97,87 %
01.04.2019 13:56 15,9 C 21,1 C 23,9 C 53 % 1018,6 hPa 0,0 l/m 2 min 0 min 764 W/m 12,9 km/h (3 Bft) 100,00 %
01.04.2019 13:58 15,9 C 20,6 C 23,9 C 53 % 1018,6 hPa 0,0 l/m 2 min 0 min 760 W/m 9,7 km/h (2 Bft) 100,00 %
01.04.2019 14:00 15,8 C 20,6 C 23,3 C 54 % 1018,6 hPa 0,0 l/m 2 min 0 min 760 W/m 9,7 km/h (2 Bft) 100,00 %
01.04.2019 14:02 15,8 C 21,7 C 23,9 C 54 % 1018,5 hPa 0,0 l/m 2 min 0 min 761 W/m 9,7 km/h (2 Bft) 100,00 %
01.04.2019 14:04 15,8 C 22,2 C 24,4 C 56 % 1018,5 hPa 0,0 l/m 2 min 0 min 760 W/m 9,7 km/h (2 Bft) 100,00 %
01.04.2019 14:06 15,8 C 21,7 C 23,9 C 54 % 1018,4 hPa 0,0 l/m 2 min 0 min 758 W/m 12,9 km/h (3 Bft) 100,00 %
01.04.2019 14:08 15,8 C 22,8 C 23,9 C 55 % 1018,4 hPa 0,0 l/m 2 min 0 min 757 W/m 12,9 km/h (3 Bft) 100,00 %
01.04.2019 14:10 15,9 C 23,9 C 25,0 C 55 % 1018,4 hPa 0,0 l/m 2 min 0 min 757 W/m 12,9 km/h (3 Bft) 100,00 %
01.04.2019 14:12 16,0 C 23,9 C 25,6 C 56 % 1018,4 hPa 0,0 l/m 2 min 0 min 756 W/m 12,9 km/h (3 Bft) 100,00 %
01.04.2019 14:14 16,1 C 23,9 C 26,1 C 56 % 1018,4 hPa 0,0 l/m 2 min 0 min 755 W/m 12,9 km/h (3 Bft) 100,00 %
01.04.2019 14:16 16,2 C 23,3 C 25,6 C 54 % 1018,3 hPa 0,0 l/m 2 min 0 min 755 W/m 9,7 km/h (2 Bft) 97,96 %
01.04.2019 14:18 16,3 C 22,8 C 25,0 C 54 % 1018,4 hPa 0,0 l/m 2 min 0 min 752 W/m 16,1 km/h (3 Bft) 95,74 %
01.04.2019 14:20 16,3 C 23,9 C 25,6 C 56 % 1018,4 hPa 0,0 l/m 2 min 0 min 751 W/m 16,1 km/h (3 Bft) 100,00 %
01.04.2019 14:22 16,4 C 23,3 C 25,0 C 53 % 1018,3 hPa 0,0 l/m 2 min 0 min 750 W/m 16,1 km/h (3 Bft) 100,00 %
01.04.2019 14:24 16,5 C 24,4 C 25,6 C 55 % 1018,3 hPa 0,0 l/m 2 min 0 min 749 W/m 9,7 km/h (2 Bft) 97,62 %
01.04.2019 14:26 16,6 C 25,0 C 25,6 C 54 % 1018,3 hPa 0,0 l/m 2 min 0 min 751 W/m 9,7 km/h (2 Bft) 97,96 %
01.04.2019 14:28 16,7 C 25,0 C 25,6 C 55 % 1018,2 hPa 0,0 l/m 2 min 0 min 748 W/m 16,1 km/h (3 Bft) 97,96 %
01.04.2019 14:30 16,8 C 25,0 C 25,6 C 54 % 1018,1 hPa 0,0 l/m 2 min 0 min 746 W/m 9,7 km/h (2 Bft) 100,00 %
01.04.2019 14:32 16,9 C 24,4 C 25,6 C 52 % 1018,1 hPa 0,0 l/m 2 min 0 min 744 W/m 12,9 km/h (3 Bft) 97,92 %
01.04.2019 14:34 16,9 C 25,0 C 25,6 C 54 % 1018,1 hPa 0,0 l/m 2 min 0 min 742 W/m 9,7 km/h (2 Bft) 97,87 %
01.04.2019 14:36 16,9 C 23,9 C 25,6 C 53 % 1018,0 hPa 0,0 l/m 2 min 0 min 743 W/m 12,9 km/h (3 Bft) 96,30 %
01.04.2019 14:38 17,0 C 23,9 C 26,1 C 53 % 1018,0 hPa 0,0 l/m 2 min 0 min 740 W/m 9,7 km/h (2 Bft) 94,59 %
01.04.2019 14:40 17,1 C 24,4 C 26,1 C 55 % 1018,0 hPa 0,0 l/m 2 min 0 min 736 W/m 9,7 km/h (2 Bft) 97,96 %
01.04.2019 14:42 17,1 C 23,9 C 25,6 C 53 % 1018,0 hPa 0,0 l/m 2 min 0 min 736 W/m 6,4 km/h (2 Bft) 95,74 %
01.04.2019 14:44 17,1 C 23,3 C 25,0 C 52 % 1017,9 hPa 0,0 l/m 2 min 0 min 734 W/m 9,7 km/h (2 Bft) 93,62 %
01.04.2019 14:46 17,1 C 23,3 C 23,3 C 52 % 1017,9 hPa 0,0 l/m 2 min 0 min 732 W/m 12,9 km/h (3 Bft) 95,74 %
01.04.2019 14:48 17,1 C 22,8 C 20,6 C 51 % 1017,8 hPa 0,0 l/m 2 min 0 min 730 W/m 9,7 km/h (2 Bft) 95,24 %
01.04.2019 14:50 17,1 C 23,9 C 18,9 C 53 % 1017,8 hPa 0,0 l/m 2 min 0 min 726 W/m 12,9 km/h (3 Bft) 93,88 %
01.04.2019 14:52 17,1 C 23,3 C 17,8 C 51 % 1017,8 hPa 0,0 l/m 2 min 0 min 724 W/m 9,7 km/h (2 Bft) 95,92 %
01.04.2019 14:54 17,1 C 22,8 C 17,8 C 52 % 1017,7 hPa 0,0 l/m 2 min 0 min 721 W/m 9,7 km/h (2 Bft) 93,62 %
01.04.2019 14:56 17,1 C 23,3 C 17,8 C 53 % 1017,7 hPa 0,0 l/m 2 min 0 min 722 W/m 12,9 km/h (3 Bft) 93,62 %
01.04.2019 14:58 17,2 C 23,9 C 17,8 C 55 % 1017,7 hPa 0,0 l/m 2 min 0 min 717 W/m 9,7 km/h (2 Bft) 92,68 %
01.04.2019 15:00 17,3 C 25,0 C 17,8 C 55 % 1017,6 hPa 0,0 l/m 2 min 0 min 716 W/m 9,7 km/h (2 Bft) 91,49 %
01.04.2019 15:02 17,3 C 23,9 C 17,8 C 53 % 1017,7 hPa 0,0 l/m 2 min 0 min 715 W/m 12,9 km/h (3 Bft) 94,00 %
01.04.2019 15:04 17,3 C 22,8 C 17,8 C 52 % 1017,7 hPa 0,0 l/m 2 min 0 min 710 W/m 9,7 km/h (2 Bft) 91,49 %
01.04.2019 15:06 17,4 C 23,3 C 17,8 C 52 % 1017,7 hPa 0,0 l/m 2 min 0 min 706 W/m 16,1 km/h (3 Bft) 96,55 %
01.04.2019 15:08 17,4 C 24,4 C 17,8 C 52 % 1017,6 hPa 0,0 l/m 2 min 0 min 704 W/m 12,9 km/h (3 Bft) 91,43 %
01.04.2019 15:10 17,4 C 22,8 C 17,2 C 51 % 1017,6 hPa 0,0 l/m 2 min 0 min 701 W/m 9,7 km/h (2 Bft) 93,62 %
01.04.2019 15:12 17,4 C 23,9 C 17,2 C 54 % 1017,5 hPa 0,0 l/m 2 min 0 min 703 W/m 12,9 km/h (3 Bft) 91,84 %
01.04.2019 15:14 17,5 C 24,4 C 17,2 C 53 % 1017,5 hPa 0,0 l/m 2 min 0 min 699 W/m 9,7 km/h (2 Bft) 93,62 %
01.04.2019 15:16 17,6 C 23,9 C 17,8 C 54 % 1017,5 hPa 0,0 l/m 2 min 0 min 694 W/m 12,9 km/h (3 Bft) 91,49 %
01.04.2019 15:18 17,6 C 23,9 C 17,8 C 53 % 1017,5 hPa 0,0 l/m 2 min 0 min 691 W/m 12,9 km/h (3 Bft) 91,49 %
01.04.2019 15:20 17,6 C 23,9 C 17,8 C 53 % 1017,4 hPa 0,0 l/m 2 min 0 min 686 W/m 12,9 km/h (3 Bft) 95,24 %
01.04.2019 15:22 17,7 C 24,4 C 17,8 C 52 % 1017,4 hPa 0,0 l/m 2 min 0 min 682 W/m 12,9 km/h (3 Bft) 93,88 %
01.04.2019 15:24 17,7 C 24,4 C 17,2 C 54 % 1017,4 hPa 0,0 l/m 2 min 0 min 682 W/m 9,7 km/h (2 Bft) 93,88 %
01.04.2019 15:26 17,7 C 24,4 C 17,2 C 52 % 1017,3 hPa 0,0 l/m 2 min 0 min 678 W/m 6,4 km/h (2 Bft) 95,74 %
01.04.2019 15:28 17,7 C 23,9 C 17,2 C 51 % 1017,3 hPa 0,0 l/m 2 min 0 min 675 W/m 3,2 km/h (1 Bft) 95,74 %
01.04.2019 15:30 17,8 C 24,4 C 16,7 C 51 % 1017,2 hPa 0,0 l/m 2 min 0 min 674 W/m 9,7 km/h (2 Bft) 93,62 %
01.04.2019 15:32 17,8 C 23,3 C 17,2 C 51 % 1017,2 hPa 0,0 l/m 2 min 0 min 670 W/m 12,9 km/h (3 Bft) 95,35 %
01.04.2019 15:34 17,8 C 22,8 C 17,2 C 51 % 1017,1 hPa 0,0 l/m 2 min 0 min 670 W/m 9,7 km/h (2 Bft) 95,92 %
01.04.2019 15:36 17,8 C 23,3 C 17,2 C 52 % 1017,1 hPa 0,0 l/m 2 min 0 min 665 W/m 12,9 km/h (3 Bft) 95,83 %
01.04.2019 15:38 17,8 C 22,8 C 17,2 C 51 % 1017,0 hPa 0,0 l/m 2 min 0 min 659 W/m 12,9 km/h (3 Bft) 97,87 %
01.04.2019 15:40 17,8 C 23,3 C 17,2 C 51 % 1017,0 hPa 0,0 l/m 2 min 0 min 655 W/m 9,7 km/h (2 Bft) 97,67 %
01.04.2019 15:42 17,8 C 22,8 C 17,2 C 51 % 1016,9 hPa 0,0 l/m 2 min 0 min 654 W/m 9,7 km/h (2 Bft) 97,92 %
01.04.2019 15:44 17,7 C 22,2 C 17,2 C 50 % 1016,9 hPa 0,0 l/m 2 min 0 min 650 W/m 9,7 km/h (2 Bft) 97,96 %
01.04.2019 15:46 17,7 C 22,8 C 17,2 C 52 % 1016,9 hPa 0,0 l/m 2 min 0 min 644 W/m 9,7 km/h (2 Bft) 100,00 %
01.04.2019 15:48 17,7 C 22,8 C 17,2 C 52 % 1016,8 hPa 0,0 l/m 2 min 0 min 640 W/m 9,7 km/h (2 Bft) 97,83 %
01.04.2019 15:50 17,7 C 22,2 C 17,2 C 50 % 1016,8 hPa 0,0 l/m 2 min 0 min 636 W/m 16,1 km/h (3 Bft) 100,00 %
01.04.2019 15:52 17,7 C 21,7 C 17,2 C 50 % 1016,7 hPa 0,0 l/m 2 min 0 min 631 W/m 6,4 km/h (2 Bft) 97,67 %
01.04.2019 15:54 17,6 C 21,1 C 17,2 C 50 % 1016,7 hPa 0,0 l/m 2 min 0 min 628 W/m 9,7 km/h (2 Bft) 100,00 %
01.04.2019 15:56 17,6 C 22,2 C 17,2 C 50 % 1016,7 hPa 0,0 l/m 2 min 0 min 624 W/m 9,7 km/h (2 Bft) 100,00 %
01.04.2019 15:58 17,6 C 23,3 C 16,7 C 52 % 1016,6 hPa 0,0 l/m 2 min 0 min 621 W/m 6,4 km/h (2 Bft) 100,00 %
01.04.2019 16:00 17,6 C 22,8 C 16,7 C 50 % 1016,6 hPa 0,0 l/m 2 min 0 min 617 W/m 16,1 km/h (3 Bft) 97,83 %
01.04.2019 16:02 17,6 C 23,3 C 17,2 C 52 % 1016,6 hPa 0,0 l/m 2 min 0 min 615 W/m 9,7 km/h (2 Bft) 97,87 %
01.04.2019 16:04 17,6 C 22,8 C 16,7 C 49 % 1016,6 hPa 0,0 l/m 2 min 0 min 610 W/m 6,4 km/h (2 Bft) 100,00 %
01.04.2019 16:06 17,6 C 22,2 C 16,7 C 49 % 1016,6 hPa 0,0 l/m 2 min 0 min 607 W/m 6,4 km/h (2 Bft) 100,00 %
01.04.2019 16:08 17,6 C 22,2 C 16,7 C 50 % 1016,6 hPa 0,0 l/m 2 min 0 min 602 W/m 6,4 km/h (2 Bft) 100,00 %
01.04.2019 16:10 17,6 C 21,7 C 17,2 C 49 % 1016,5 hPa 0,0 l/m 2 min 0 min 598 W/m 12,9 km/h (3 Bft) 97,92 %
01.04.2019 16:12 17,6 C 21,7 C 17,2 C 50 % 1016,6 hPa 0,0 l/m 2 min 0 min 592 W/m 6,4 km/h (2 Bft) 97,87 %
01.04.2019 16:14 17,6 C 22,8 C 17,8 C 52 % 1016,5 hPa 0,0 l/m 2 min 0 min 591 W/m 9,7 km/h (2 Bft) 100,00 %
01.04.2019 16:16 17,7 C 23,3 C 18,3 C 52 % 1016,5 hPa 0,0 l/m 2 min 0 min 585 W/m 12,9 km/h (3 Bft) 100,00 %
01.04.2019 16:18 17,8 C 23,3 C 18,3 C 52 % 1016,4 hPa 0,0 l/m 2 min 0 min 581 W/m 12,9 km/h (3 Bft) 100,00 %
01.04.2019 16:20 17,8 C 23,3 C 18,3 C 53 % 1016,3 hPa 0,0 l/m 2 min 0 min 575 W/m 12,9 km/h (3 Bft) 100,00 %
01.04.2019 16:22 17,9 C 23,3 C 18,9 C 53 % 1016,4 hPa 0,0 l/m 2 min 0 min 569 W/m 9,7 km/h (2 Bft) 100,00 %
01.04.2019 16:24 18,0 C 23,9 C 18,9 C 52 % 1016,3 hPa 0,0 l/m 2 min 0 min 563 W/m 6,4 km/h (2 Bft) 100,00 %
01.04.2019 16:26 18,1 C 23,3 C 19,4 C 51 % 1016,3 hPa 0,0 l/m 2 min 0 min 562 W/m 9,7 km/h (2 Bft) 100,00 %
01.04.2019 16:28 18,1 C 22,8 C 18,9 C 49 % 1016,2 hPa 0,0 l/m 2 min 0 min 557 W/m 9,7 km/h (2 Bft) 100,00 %
01.04.2019 16:30 18,1 C 23,3 C 17,8 C 51 % 1016,2 hPa 0,0 l/m 2 min 0 min 550 W/m 6,4 km/h (2 Bft) 100,00 %
01.04.2019 16:32 18,1 C 23,3 C 17,8 C 51 % 1016,1 hPa 0,0 l/m 2 min 0 min 547 W/m 9,7 km/h (2 Bft) 96,08 %
01.04.2019 16:34 18,2 C 23,3 C 18,3 C 51 % 1016,1 hPa 0,0 l/m 2 min 0 min 544 W/m 9,7 km/h (2 Bft) 100,00 %
01.04.2019 16:36 18,2 C 22,2 C 18,3 C 50 % 1016,1 hPa 0,0 l/m 2 min 0 min 537 W/m 9,7 km/h (2 Bft) 100,00 %
01.04.2019 16:38 18,2 C 23,3 C 18,9 C 51 % 1016,1 hPa 0,0 l/m 2 min 0 min 532 W/m 9,7 km/h (2 Bft) 100,00 %
01.04.2019 16:40 18,3 C 22,2 C 18,3 C 50 % 1016,0 hPa 0,0 l/m 2 min 0 min 527 W/m 12,9 km/h (3 Bft) 100,00 %
01.04.2019 16:42 18,3 C 22,2 C 18,3 C 50 % 1016,0 hPa 0,0 l/m 2 min 0 min 521 W/m 9,7 km/h (2 Bft) 100,00 %
01.04.2019 16:44 18,2 C 21,1 C 17,8 C 49 % 1016,0 hPa 0,0 l/m 2 min 0 min 516 W/m 9,7 km/h (2 Bft) 100,00 %
01.04.2019 16:46 18,2 C 21,1 C 17,8 C 50 % 1015,9 hPa 0,0 l/m 2 min 0 min 510 W/m 9,7 km/h (2 Bft) 100,00 %
01.04.2019 16:48 18,1 C 21,7 C 17,8 C 50 % 1015,8 hPa 0,0 l/m 2 min 0 min 503 W/m 9,7 km/h (2 Bft) 100,00 %
01.04.2019 16:50 18,1 C 21,7 C 18,3 C 51 % 1015,8 hPa 0,0 l/m 2 min 0 min 498 W/m 9,7 km/h (2 Bft) 100,00 %
01.04.2019 16:52 18,2 C 22,2 C 19,4 C 50 % 1015,8 hPa 0,0 l/m 2 min 0 min 495 W/m 9,7 km/h (2 Bft) 100,00 %
01.04.2019 16:54 18,2 C 22,2 C 20,0 C 50 % 1015,8 hPa 0,0 l/m 2 min 0 min 492 W/m 9,7 km/h (2 Bft) 100,00 %
01.04.2019 16:56 18,2 C 22,2 C 21,1 C 51 % 1015,8 hPa 0,0 l/m 2 min 0 min 485 W/m 9,7 km/h (2 Bft) 100,00 %
01.04.2019 16:58 18,2 C 21,1 C 22,2 C 51 % 1015,7 hPa 0,0 l/m 2 min 0 min 478 W/m 6,4 km/h (2 Bft) 97,83 %
01.04.2019 17:00 18,2 C 21,7 C 22,8 C 51 % 1015,7 hPa 0,0 l/m 2 min 0 min 471 W/m 9,7 km/h (2 Bft) 100,00 %
01.04.2019 17:02 18,2 C 21,1 C 22,8 C 50 % 1015,7 hPa 0,0 l/m 2 min 0 min 465 W/m 9,7 km/h (2 Bft) 100,00 %
01.04.2019 17:04 18,2 C 20,6 C 22,2 C 49 % 1015,6 hPa 0,0 l/m 2 min 0 min 464 W/m 9,7 km/h (2 Bft) 100,00 %
01.04.2019 17:06 18,2 C 20,6 C 21,7 C 49 % 1015,6 hPa 0,0 l/m 2 min 0 min 457 W/m 9,7 km/h (2 Bft) 100,00 %
01.04.2019 17:08 18,2 C 20,6 C 21,7 C 50 % 1015,6 hPa 0,0 l/m 2 min 0 min 452 W/m 6,4 km/h (2 Bft) 100,00 %
01.04.2019 17:10 18,1 C 21,1 C 21,1 C 51 % 1015,5 hPa 0,0 l/m 2 min 0 min 448 W/m 12,9 km/h (3 Bft) 97,92 %
01.04.2019 17:12 18,1 C 21,1 C 20,0 C 51 % 1015,5 hPa 0,0 l/m 2 min 0 min 440 W/m 9,7 km/h (2 Bft) 97,87 %
01.04.2019 17:14 18,1 C 20,6 C 18,3 C 49 % 1015,5 hPa 0,0 l/m 2 min 0 min 435 W/m 6,4 km/h (2 Bft) 100,00 %
01.04.2019 17:16 18,1 C 20,0 C 17,2 C 48 % 1015,4 hPa 0,0 l/m 2 min 0 min 432 W/m 6,4 km/h (2 Bft) 97,56 %
01.04.2019 17:18 18,1 C 20,6 C 16,7 C 49 % 1015,4 hPa 0,0 l/m 2 min 0 min 425 W/m 9,7 km/h (2 Bft) 97,96 %
01.04.2019 17:20 18,1 C 20,0 C 16,7 C 50 % 1015,4 hPa 0,0 l/m 2 min 0 min 418 W/m 12,9 km/h (3 Bft) 97,96 %
01.04.2019 17:22 18,1 C 20,0 C 16,7 C 49 % 1015,3 hPa 0,0 l/m 2 min 0 min 413 W/m 9,7 km/h (2 Bft) 95,83 %
01.04.2019 17:24 18,0 C 20,0 C 16,1 C 50 % 1015,3 hPa 0,0 l/m 2 min 0 min 407 W/m 6,4 km/h (2 Bft) 97,87 %
01.04.2019 17:26 18,0 C 20,0 C 16,1 C 50 % 1015,3 hPa 0,0 l/m 2 min 0 min 402 W/m 9,7 km/h (2 Bft) 97,87 %
01.04.2019 17:28 18,0 C 20,0 C 16,1 C 50 % 1015,2 hPa 0,0 l/m 2 min 0 min 397 W/m 19,3 km/h (3 Bft) 97,56 %
01.04.2019 17:30 17,9 C 19,4 C 16,1 C 49 % 1015,2 hPa 0,0 l/m 2 min 0 min 390 W/m 9,7 km/h (2 Bft) 95,92 %
01.04.2019 17:32 17,9 C 20,0 C 16,1 C 50 % 1015,1 hPa 0,0 l/m 2 min 0 min 385 W/m 9,7 km/h (2 Bft) 98,00 %
01.04.2019 17:34 17,9 C 20,0 C 16,1 C 51 % 1015,1 hPa 0,0 l/m 2 min 0 min 381 W/m 6,4 km/h (2 Bft) 95,74 %
01.04.2019 17:36 17,9 C 20,0 C 15,6 C 50 % 1015,1 hPa 0,0 l/m 2 min 0 min 374 W/m 6,4 km/h (2 Bft) 96,61 %
01.04.2019 17:38 17,9 C 20,0 C 15,6 C 50 % 1015,1 hPa 0,0 l/m 2 min 0 min 373 W/m 9,7 km/h (2 Bft) 97,14 %
01.04.2019 17:40 17,8 C 19,4 C 15,6 C 50 % 1015,1 hPa 0,0 l/m 2 min 0 min 368 W/m 9,7 km/h (2 Bft) 100,00 %
01.04.2019 17:42 17,8 C 19,4 C 15,0 C 50 % 1015,0 hPa 0,0 l/m 2 min 0 min 358 W/m 6,4 km/h (2 Bft) 95,24 %
01.04.2019 17:44 17,8 C 19,4 C 15,0 C 51 % 1015,0 hPa 0,0 l/m 2 min 0 min 348 W/m 9,7 km/h (2 Bft) 97,96 %
01.04.2019 17:46 17,8 C 19,4 C 15,0 C 51 % 1015,0 hPa 0,0 l/m 2 min 0 min 340 W/m 9,7 km/h (2 Bft) 97,96 %
01.04.2019 17:48 17,7 C 18,9 C 15,0 C 50 % 1014,9 hPa 0,0 l/m 2 min 0 min 336 W/m 9,7 km/h (2 Bft) 97,87 %
01.04.2019 17:50 17,7 C 18,9 C 15,0 C 50 % 1014,9 hPa 0,0 l/m 2 min 0 min 328 W/m 6,4 km/h (2 Bft) 93,62 %
01.04.2019 17:52 17,7 C 18,9 C 15,0 C 50 % 1014,9 hPa 0,0 l/m 2 min 0 min 322 W/m 9,7 km/h (2 Bft) 91,49 %
01.04.2019 17:54 17,7 C 18,3 C 14,4 C 50 % 1014,9 hPa 0,0 l/m 2 min 0 min 316 W/m 9,7 km/h (2 Bft) 95,24 %
01.04.2019 17:56 17,6 C 18,3 C 14,4 C 49 % 1014,9 hPa 0,0 l/m 2 min 0 min 309 W/m 9,7 km/h (2 Bft) 97,96 %
01.04.2019 17:58 17,6 C 18,3 C 14,4 C 50 % 1014,8 hPa 0,0 l/m 2 min 0 min 304 W/m 6,4 km/h (2 Bft) 95,92 %
01.04.2019 18:00 17,6 C 17,8 C 14,4 C 50 % 1014,8 hPa 0,0 l/m 2 min 0 min 299 W/m 9,7 km/h (2 Bft) 95,74 %
01.04.2019 18:02 17,5 C 18,3 C 14,4 C 51 % 1014,7 hPa 0,0 l/m 2 min 0 min 293 W/m 6,4 km/h (2 Bft) 93,62 %
01.04.2019 18:04 17,4 C 17,2 C 14,4 C 51 % 1014,8 hPa 0,0 l/m 2 min 0 min 287 W/m 6,4 km/h (2 Bft) 97,87 %
01.04.2019 18:07 17,3 C 16,7 C 14,4 C 50 % 1014,8 hPa 0,0 l/m 3 min 0 min 280 W/m 12,9 km/h (3 Bft) 95,71 %
01.04.2019 18:08 17,3 C 16,1 C 14,4 C 50 % 1014,8 hPa 0,0 l/m 1 min 0 min 254 W/m 6,4 km/h (2 Bft) 95,83 %
01.04.2019 18:10 17,2 C 15,6 C 14,4 C 50 % 1014,7 hPa 0,0 l/m 2 min 0 min 147 W/m 6,4 km/h (2 Bft) 95,24 %
01.04.2019 18:12 17,1 C 15,6 C 14,4 C 51 % 1014,7 hPa 0,0 l/m 0 min 0 min 66 W/m 6,4 km/h (2 Bft) 95,92 %
01.04.2019 18:14 17,0 C 15,6 C 13,9 C 51 % 1014,6 hPa 0,0 l/m 0 min 0 min 61 W/m 9,7 km/h (2 Bft) 95,74 %
01.04.2019 18:16 16,9 C 15,6 C 13,9 C 51 % 1014,6 hPa 0,0 l/m 0 min 0 min 60 W/m 6,4 km/h (2 Bft) 95,92 %
01.04.2019 18:18 16,8 C 15,0 C 13,9 C 51 % 1014,6 hPa 0,0 l/m 0 min 0 min 58 W/m 6,4 km/h (2 Bft) 95,74 %
01.04.2019 18:20 16,7 C 15,0 C 13,9 C 52 % 1014,6 hPa 0,0 l/m 0 min 0 min 57 W/m 9,7 km/h (2 Bft) 95,74 %
01.04.2019 18:22 16,6 C 15,0 C 13,9 C 52 % 1014,6 hPa 0,0 l/m 0 min 0 min 56 W/m 6,4 km/h (2 Bft) 95,12 %
01.04.2019 18:24 16,6 C 15,0 C 13,9 C 52 % 1014,6 hPa 0,0 l/m 0 min 0 min 55 W/m 9,7 km/h (2 Bft) 95,92 %
01.04.2019 18:26 16,5 C 15,0 C 13,9 C 52 % 1014,6 hPa 0,0 l/m 0 min 0 min 54 W/m 9,7 km/h (2 Bft) 93,75 %
01.04.2019 18:28 16,4 C 15,0 C 13,3 C 53 % 1014,5 hPa 0,0 l/m 0 min 0 min 53 W/m 6,4 km/h (2 Bft) 93,88 %
01.04.2019 18:30 16,3 C 15,0 C 13,3 C 52 % 1014,5 hPa 0,0 l/m 0 min 0 min 53 W/m 6,4 km/h (2 Bft) 95,74 %
01.04.2019 18:32 16,2 C 15,0 C 13,3 C 52 % 1014,5 hPa 0,0 l/m 0 min 0 min 53 W/m 16,1 km/h (3 Bft) 95,65 %
01.04.2019 18:34 16,2 C 14,4 C 13,3 C 52 % 1014,5 hPa 0,0 l/m 0 min 0 min 51 W/m 6,4 km/h (2 Bft) 95,35 %
01.04.2019 18:36 16,1 C 14,4 C 13,3 C 53 % 1014,5 hPa 0,0 l/m 0 min 0 min 50 W/m 6,4 km/h (2 Bft) 93,88 %
01.04.2019 18:38 16,0 C 14,4 C 13,3 C 53 % 1014,5 hPa 0,0 l/m 0 min 0 min 49 W/m 6,4 km/h (2 Bft) 95,83 %
01.04.2019 18:40 15,9 C 14,4 C 13,3 C 53 % 1014,5 hPa 0,0 l/m 0 min 0 min 47 W/m 6,4 km/h (2 Bft) 97,92 %
01.04.2019 18:42 15,8 C 14,4 C 13,3 C 54 % 1014,5 hPa 0,0 l/m 0 min 0 min 47 W/m 9,7 km/h (2 Bft) 97,83 %
01.04.2019 18:44 15,8 C 14,4 C 13,3 C 54 % 1014,4 hPa 0,0 l/m 0 min 0 min 46 W/m 9,7 km/h (2 Bft) 97,87 %
01.04.2019 18:46 15,7 C 14,4 C 13,3 C 54 % 1014,5 hPa 0,0 l/m 0 min 0 min 46 W/m 6,4 km/h (2 Bft) 97,67 %
01.04.2019 18:48 15,6 C 14,4 C 13,3 C 54 % 1014,5 hPa 0,0 l/m 0 min 0 min 45 W/m 12,9 km/h (3 Bft) 100,00 %
01.04.2019 18:50 15,6 C 14,4 C 13,3 C 54 % 1014,4 hPa 0,0 l/m 0 min 0 min 44 W/m 9,7 km/h (2 Bft) 100,00 %
01.04.2019 18:52 15,5 C 14,4 C 13,3 C 54 % 1014,4 hPa 0,0 l/m 0 min 0 min 43 W/m 6,4 km/h (2 Bft) 100,00 %
01.04.2019 18:54 15,4 C 14,4 C 12,8 C 54 % 1014,5 hPa 0,0 l/m 0 min 0 min 42 W/m 9,7 km/h (2 Bft) 100,00 %
01.04.2019 18:56 15,4 C 14,4 C 12,8 C 54 % 1014,5 hPa 0,0 l/m 0 min 0 min 42 W/m 6,4 km/h (2 Bft) 97,87 %
01.04.2019 18:58 15,3 C 14,4 C 12,8 C 54 % 1014,5 hPa 0,0 l/m 0 min 0 min 40 W/m 9,7 km/h (2 Bft) 100,00 %
01.04.2019 19:00 15,3 C 14,4 C 12,8 C 55 % 1014,4 hPa 0,0 l/m 0 min 0 min 40 W/m 6,4 km/h (2 Bft) 100,00 %
01.04.2019 19:02 15,2 C 13,9 C 12,8 C 55 % 1014,4 hPa 0,0 l/m 0 min 0 min 39 W/m 6,4 km/h (2 Bft) 98,00 %
01.04.2019 19:04 15,2 C 13,9 C 12,8 C 55 % 1014,4 hPa 0,0 l/m 0 min 0 min 39 W/m 9,7 km/h (2 Bft) 100,00 %
01.04.2019 19:06 15,2 C 13,9 C 12,8 C 55 % 1014,4 hPa 0,0 l/m 0 min 0 min 37 W/m 6,4 km/h (2 Bft) 100,00 %
01.04.2019 19:08 15,1 C 13,9 C 12,8 C 55 % 1014,4 hPa 0,0 l/m 0 min 0 min 36 W/m 6,4 km/h (2 Bft) 100,00 %
01.04.2019 19:10 15,1 C 13,9 C 12,8 C 56 % 1014,4 hPa 0,0 l/m 0 min 0 min 35 W/m 6,4 km/h (2 Bft) 95,92 %
01.04.2019 19:12 15,0 C 13,9 C 12,8 C 56 % 1014,4 hPa 0,0 l/m 0 min 0 min 33 W/m 6,4 km/h (2 Bft) 100,00 %
01.04.2019 19:14 15,0 C 13,9 C 12,2 C 56 % 1014,4 hPa 0,0 l/m 0 min 0 min 33 W/m 6,4 km/h (2 Bft) 100,00 %
01.04.2019 19:16 14,9 C 13,9 C 12,2 C 56 % 1014,3 hPa 0,0 l/m 0 min 0 min 32 W/m 6,4 km/h (2 Bft) 100,00 %
01.04.2019 19:18 14,9 C 13,3 C 12,2 C 56 % 1014,4 hPa 0,0 l/m 0 min 0 min 31 W/m 6,4 km/h (2 Bft) 100,00 %
01.04.2019 19:20 14,8 C 13,3 C 12,2 C 57 % 1014,2 hPa 0,0 l/m 0 min 0 min 30 W/m 6,4 km/h (2 Bft) 100,00 %
01.04.2019 19:22 14,8 C 13,3 C 12,2 C 57 % 1014,3 hPa 0,0 l/m 0 min 0 min 29 W/m 6,4 km/h (2 Bft) 97,96 %
01.04.2019 19:24 14,7 C 13,3 C 12,2 C 57 % 1014,3 hPa 0,0 l/m 0 min 0 min 28 W/m 6,4 km/h (2 Bft) 100,00 %
01.04.2019 19:26 14,7 C 13,3 C 12,2 C 56 % 1014,3 hPa 0,0 l/m 0 min 0 min 26 W/m 9,7 km/h (2 Bft) 100,00 %
01.04.2019 19:28 14,6 C 13,3 C 11,7 C 57 % 1014,3 hPa 0,0 l/m 0 min 0 min 26 W/m 6,4 km/h (2 Bft) 100,00 %
01.04.2019 19:30 14,6 C 12,8 C 11,7 C 57 % 1014,3 hPa 0,0 l/m 0 min 0 min 25 W/m 3,2 km/h (1 Bft) 97,83 %
01.04.2019 19:32 14,5 C 12,8 C 11,7 C 58 % 1014,3 hPa 0,0 l/m 0 min 0 min 24 W/m 3,2 km/h (1 Bft) 100,00 %
01.04.2019 19:34 14,5 C 12,8 C 11,7 C 58 % 1014,3 hPa 0,0 l/m 0 min 0 min 22 W/m 6,4 km/h (2 Bft) 97,96 %
01.04.2019 19:36 14,4 C 12,8 C 11,7 C 58 % 1014,3 hPa 0,0 l/m 0 min 0 min 21 W/m 6,4 km/h (2 Bft) 100,00 %
01.04.2019 19:38 14,4 C 12,8 C 11,7 C 59 % 1014,3 hPa 0,0 l/m 0 min 0 min 20 W/m 6,4 km/h (2 Bft) 100,00 %
01.04.2019 19:40 14,3 C 12,8 C 11,7 C 59 % 1014,2 hPa 0,0 l/m 0 min 0 min 19 W/m 6,4 km/h (2 Bft) 97,87 %
01.04.2019 19:42 14,3 C 12,2 C 11,7 C 59 % 1014,2 hPa 0,0 l/m 0 min 0 min 18 W/m 3,2 km/h (1 Bft) 100,00 %
01.04.2019 19:44 14,2 C 12,2 C 11,7 C 60 % 1014,2 hPa 0,0 l/m 0 min 0 min 17 W/m 6,4 km/h (2 Bft) 100,00 %
01.04.2019 19:46 14,2 C 12,2 C 11,1 C 60 % 1014,2 hPa 0,0 l/m 0 min 0 min 15 W/m 6,4 km/h (2 Bft) 100,00 %
01.04.2019 19:48 14,2 C 12,2 C 11,1 C 60 % 1014,2 hPa 0,0 l/m 0 min 0 min 14 W/m 6,4 km/h (2 Bft) 100,00 %
01.04.2019 19:50 14,2 C 12,2 C 11,1 C 60 % 1014,1 hPa 0,0 l/m 0 min 0 min 13 W/m 6,4 km/h (2 Bft) 100,00 %
01.04.2019 19:52 14,1 C 12,2 C 11,1 C 60 % 1014,1 hPa 0,0 l/m 0 min 0 min 12 W/m 6,4 km/h (2 Bft) 100,00 %
01.04.2019 19:54 14,0 C 11,7 C 10,6 C 60 % 1014,1 hPa 0,0 l/m 0 min 0 min 11 W/m 6,4 km/h (2 Bft) 100,00 %
01.04.2019 19:56 13,9 C 11,7 C 10,6 C 60 % 1014,1 hPa 0,0 l/m 0 min 0 min 10 W/m 6,4 km/h (2 Bft) 97,67 %
01.04.2019 19:58 13,9 C 11,7 C 10,6 C 61 % 1014,1 hPa 0,0 l/m 0 min 0 min 9 W/m 6,4 km/h (2 Bft) 96,00 %
01.04.2019 20:00 13,8 C 11,7 C 10,6 C 61 % 1014,1 hPa 0,0 l/m 0 min 0 min 7 W/m 6,4 km/h (2 Bft) 95,65 %
01.04.2019 20:02 13,7 C 11,1 C 10,6 C 61 % 1014,1 hPa 0,0 l/m 0 min 0 min 7 W/m 6,4 km/h (2 Bft) 95,92 %
01.04.2019 20:04 13,7 C 11,1 C 10,0 C 61 % 1014,1 hPa 0,0 l/m 0 min 0 min 5 W/m 6,4 km/h (2 Bft) 97,87 %
01.04.2019 20:06 13,6 C 11,1 C 10,0 C 61 % 1014,0 hPa 0,0 l/m 0 min 0 min 5 W/m 3,2 km/h (1 Bft) 95,65 %
01.04.2019 20:08 13,6 C 11,1 C 10,0 C 61 % 1014,0 hPa 0,0 l/m 0 min 0 min 0 W/m 6,4 km/h (2 Bft) 97,62 %
01.04.2019 20:10 13,5 C 11,1 C 10,0 C 62 % 1014,0 hPa 0,0 l/m 0 min 0 min 0 W/m 6,4 km/h (2 Bft) 95,92 %
01.04.2019 20:12 13,4 C 10,6 C 10,0 C 62 % 1014,0 hPa 0,0 l/m 0 min 0 min 0 W/m 6,4 km/h (2 Bft) 93,75 %
01.04.2019 20:14 13,3 C 10,6 C 10,0 C 62 % 1014,0 hPa 0,0 l/m 0 min 0 min 0 W/m 3,2 km/h (1 Bft) 93,88 %
01.04.2019 20:16 13,2 C 10,6 C 10,0 C 62 % 1014,0 hPa 0,0 l/m 0 min 0 min 0 W/m 6,4 km/h (2 Bft) 95,92 %
01.04.2019 20:18 13,1 C 10,6 C 9,4 C 62 % 1014,0 hPa 0,0 l/m 0 min 0 min 0 W/m 3,2 km/h (1 Bft) 91,84 %
01.04.2019 20:20 13,1 C 10,6 C 9,4 C 62 % 1013,9 hPa 0,0 l/m 0 min 0 min 0 W/m 6,4 km/h (2 Bft) 95,83 %
01.04.2019 20:22 12,9 C 10,6 C 9,4 C 62 % 1013,9 hPa 0,0 l/m 0 min 0 min 0 W/m 3,2 km/h (1 Bft) 95,74 %
01.04.2019 20:24 12,9 C 10,6 C 9,4 C 63 % 1013,9 hPa 0,0 l/m 0 min 0 min 0 W/m 6,4 km/h (2 Bft) 95,74 %
01.04.2019 20:26 12,8 C 10,0 C 9,4 C 63 % 1013,9 hPa 0,0 l/m 0 min 0 min 0 W/m 6,4 km/h (2 Bft) 95,12 %
01.04.2019 20:28 12,7 C 10,0 C 9,4 C 63 % 1014,0 hPa 0,0 l/m 0 min 0 min 0 W/m 3,2 km/h (1 Bft) 95,92 %
01.04.2019 20:30 12,7 C 10,6 C 9,4 C 63 % 1013,9 hPa 0,0 l/m 0 min 0 min 0 W/m 6,4 km/h (2 Bft) 93,88 %
01.04.2019 20:32 12,6 C 10,0 C 9,4 C 64 % 1013,9 hPa 0,0 l/m 0 min 0 min 0 W/m 3,2 km/h (1 Bft) 95,92 %
01.04.2019 20:34 12,5 C 10,0 C 9,4 C 64 % 1013,9 hPa 0,0 l/m 0 min 0 min 0 W/m 6,4 km/h (2 Bft) 95,74 %
01.04.2019 20:36 12,4 C 10,0 C 9,4 C 64 % 1013,9 hPa 0,0 l/m 0 min 0 min 0 W/m 6,4 km/h (2 Bft) 95,74 %
01.04.2019 20:38 12,4 C 10,0 C 9,4 C 64 % 1014,0 hPa 0,0 l/m 0 min 0 min 0 W/m 6,4 km/h (2 Bft) 97,56 %
01.04.2019 20:40 12,3 C 10,0 C 9,4 C 64 % 1013,9 hPa 0,0 l/m 0 min 0 min 0 W/m 3,2 km/h (1 Bft) 97,96 %
01.04.2019 20:42 12,2 C 10,0 C 9,4 C 64 % 1014,0 hPa 0,0 l/m 0 min 0 min 0 W/m 6,4 km/h (2 Bft) 97,96 %
01.04.2019 20:44 12,2 C 10,0 C 9,4 C 64 % 1013,9 hPa 0,0 l/m 0 min 0 min 0 W/m 3,2 km/h (1 Bft) 97,92 %
01.04.2019 20:46 12,1 C 10,0 C 8,9 C 64 % 1013,9 hPa 0,0 l/m 0 min 0 min 0 W/m 3,2 km/h (1 Bft) 95,74 %
01.04.2019 20:48 12,1 C 10,0 C 8,9 C 65 % 1013,9 hPa 0,0 l/m 0 min 0 min 0 W/m 6,4 km/h (2 Bft) 97,87 %
01.04.2019 20:50 12,0 C 10,0 C 8,9 C 65 % 1013,9 hPa 0,0 l/m 0 min 0 min 0 W/m 6,4 km/h (2 Bft) 97,56 %
01.04.2019 20:52 11,9 C 10,0 C 8,9 C 65 % 1013,9 hPa 0,0 l/m 0 min 0 min 0 W/m 6,4 km/h (2 Bft) 97,96 %
01.04.2019 20:54 11,8 C 10,0 C 8,9 C 65 % 1013,9 hPa 0,0 l/m 0 min 0 min 0 W/m 6,4 km/h (2 Bft) 97,96 %
01.04.2019 20:56 11,8 C 10,0 C 8,9 C 66 % 1013,9 hPa 0,0 l/m 0 min 0 min 0 W/m 6,4 km/h (2 Bft) 97,92 %
01.04.2019 20:58 11,7 C 9,4 C 8,9 C 66 % 1013,9 hPa 0,0 l/m 0 min 0 min 0 W/m 6,4 km/h (2 Bft) 97,87 %
01.04.2019 21:00 11,7 C 9,4 C 8,9 C 66 % 1013,9 hPa 0,0 l/m 0 min 0 min 0 W/m 6,4 km/h (2 Bft) 100,00 %
01.04.2019 21:02 11,6 C 9,4 C 8,9 C 66 % 1013,9 hPa 0,0 l/m 0 min 0 min 0 W/m 6,4 km/h (2 Bft) 97,56 %
01.04.2019 21:04 11,6 C 9,4 C 8,3 C 66 % 1013,8 hPa 0,0 l/m 0 min 0 min 0 W/m 3,2 km/h (1 Bft) 100,00 %
01.04.2019 21:06 11,5 C 9,4 C 8,3 C 66 % 1013,9 hPa 0,0 l/m 0 min 0 min 0 W/m 6,4 km/h (2 Bft) 98,00 %
01.04.2019 21:08 11,4 C 9,4 C 8,3 C 66 % 1013,9 hPa 0,0 l/m 0 min 0 min 0 W/m 3,2 km/h (1 Bft) 100,00 %
01.04.2019 21:10 11,4 C 9,4 C 8,3 C 66 % 1013,9 hPa 0,0 l/m 0 min 0 min 0 W/m 6,4 km/h (2 Bft) 95,83 %
01.04.2019 21:12 11,3 C 9,4 C 8,3 C 66 % 1013,9 hPa 0,0 l/m 0 min 0 min 0 W/m 6,4 km/h (2 Bft) 100,00 %
01.04.2019 21:14 11,3 C 9,4 C 8,3 C 67 % 1013,9 hPa 0,0 l/m 0 min 0 min 0 W/m 6,4 km/h (2 Bft) 100,00 %
01.04.2019 21:16 11,2 C 9,4 C 8,3 C 67 % 1013,9 hPa 0,0 l/m 0 min 0 min 0 W/m 3,2 km/h (1 Bft) 100,00 %
01.04.2019 21:18 11,1 C 9,4 C 8,3 C 67 % 1013,8 hPa 0,0 l/m 0 min 0 min 0 W/m 6,4 km/h (2 Bft) 100,00 %
01.04.2019 21:20 11,1 C 8,9 C 8,3 C 67 % 1013,7 hPa 0,0 l/m 0 min 0 min 0 W/m 3,2 km/h (1 Bft) 97,92 %
01.04.2019 21:22 11,0 C 8,9 C 8,3 C 67 % 1013,7 hPa 0,0 l/m 0 min 0 min 0 W/m 6,4 km/h (2 Bft) 100,00 %
01.04.2019 21:24 11,0 C 8,9 C 7,8 C 67 % 1013,7 hPa 0,0 l/m 0 min 0 min 0 W/m 6,4 km/h (2 Bft) 100,00 %
01.04.2019 21:26 10,9 C 8,9 C 7,8 C 67 % 1013,8 hPa 0,0 l/m 0 min 0 min 0 W/m 3,2 km/h (1 Bft) 100,00 %
01.04.2019 21:28 10,9 C 8,9 C 7,8 C 67 % 1013,7 hPa 0,0 l/m 0 min 0 min 0 W/m 3,2 km/h (1 Bft) 100,00 %
01.04.2019 21:30 10,8 C 8,3 C 7,8 C 67 % 1013,8 hPa 0,0 l/m 0 min 0 min 0 W/m 3,2 km/h (1 Bft) 100,00 %
01.04.2019 21:32 10,8 C 8,3 C 7,8 C 67 % 1013,8 hPa 0,0 l/m 0 min 0 min 0 W/m 3,2 km/h (1 Bft) 100,00 %
01.04.2019 21:34 10,7 C 8,3 C 7,8 C 67 % 1013,7 hPa 0,0 l/m 0 min 0 min 0 W/m 3,2 km/h (1 Bft) 100,00 %
01.04.2019 21:36 10,7 C 8,3 C 7,2 C 67 % 1013,7 hPa 0,0 l/m 0 min 0 min 0 W/m 3,2 km/h (1 Bft) 100,00 %
01.04.2019 21:38 10,6 C 8,3 C 7,2 C 68 % 1013,7 hPa 0,0 l/m 0 min 0 min 0 W/m 3,2 km/h (1 Bft) 97,62 %
01.04.2019 21:40 10,6 C 8,3 C 7,2 C 68 % 1013,7 hPa 0,0 l/m 0 min 0 min 0 W/m 3,2 km/h (1 Bft) 100,00 %
01.04.2019 21:42 10,5 C 8,3 C 7,2 C 68 % 1013,7 hPa 0,0 l/m 0 min 0 min 0 W/m 3,2 km/h (1 Bft) 97,92 %
01.04.2019 21:44 10,4 C 8,3 C 7,2 C 68 % 1013,8 hPa 0,0 l/m 0 min 0 min 0 W/m 3,2 km/h (1 Bft) 95,92 %
01.04.2019 21:46 10,4 C 8,3 C 7,2 C 68 % 1013,8 hPa 0,0 l/m 0 min 0 min 0 W/m 3,2 km/h (1 Bft) 97,87 %
01.04.2019 21:48 10,4 C 8,3 C 7,8 C 69 % 1013,8 hPa 0,0 l/m 0 min 0 min 0 W/m 3,2 km/h (1 Bft) 95,65 %
01.04.2019 21:50 10,3 C 8,3 C 7,8 C 69 % 1013,8 hPa 0,0 l/m 0 min 0 min 0 W/m 6,4 km/h (2 Bft) 97,62 %
01.04.2019 21:52 10,2 C 8,9 C 7,8 C 69 % 1013,7 hPa 0,0 l/m 0 min 0 min 0 W/m 6,4 km/h (2 Bft) 95,92 %
01.04.2019 21:54 10,2 C 8,9 C 7,8 C 69 % 1013,7 hPa 0,0 l/m 0 min 0 min 0 W/m 3,2 km/h (1 Bft) 97,96 %
01.04.2019 21:56 10,2 C 8,9 C 7,8 C 69 % 1013,8 hPa 0,0 l/m 0 min 0 min 0 W/m 3,2 km/h (1 Bft) 95,83 %
01.04.2019 21:58 10,1 C 8,9 C 7,8 C 69 % 1013,8 hPa 0,0 l/m 0 min 0 min 0 W/m 0,0 km/h (0 Bft) 93,62 %
01.04.2019 22:00 10,1 C 8,9 C 7,2 C 69 % 1013,7 hPa 0,0 l/m 0 min 0 min 0 W/m 3,2 km/h (1 Bft) 95,65 %
01.04.2019 22:02 10,1 C 8,9 C 7,2 C 69 % 1013,7 hPa 0,0 l/m 0 min 0 min 0 W/m 3,2 km/h (1 Bft) 95,24 %
01.04.2019 22:04 10,0 C 8,3 C 7,2 C 70 % 1013,7 hPa 0,0 l/m 0 min 0 min 0 W/m 3,2 km/h (1 Bft) 95,74 %
01.04.2019 22:06 9,9 C 8,3 C 7,2 C 70 % 1013,7 hPa 0,0 l/m 0 min 0 min 0 W/m 0,0 km/h (0 Bft) 95,74 %
01.04.2019 22:08 9,9 C 8,3 C 7,2 C 70 % 1013,7 hPa 0,0 l/m 0 min 0 min 0 W/m 3,2 km/h (1 Bft) 95,83 %
01.04.2019 22:10 9,9 C 8,3 C 7,2 C 70 % 1013,7 hPa 0,0 l/m 0 min 0 min 0 W/m 3,2 km/h (1 Bft) 95,92 %
01.04.2019 22:12 9,9 C 8,3 C 7,2 C 70 % 1013,6 hPa 0,0 l/m 0 min 0 min 0 W/m 0,0 km/h (0 Bft) 95,83 %
01.04.2019 22:14 9,8 C 8,3 C 6,7 C 70 % 1013,7 hPa 0,0 l/m 0 min 0 min 0 W/m 3,2 km/h (1 Bft) 95,74 %
01.04.2019 22:16 9,8 C 8,3 C 6,7 C 70 % 1013,6 hPa 0,0 l/m 0 min 0 min 0 W/m 3,2 km/h (1 Bft) 95,74 %
01.04.2019 22:18 9,8 C 7,8 C 6,7 C 70 % 1013,6 hPa 0,0 l/m 0 min 0 min 0 W/m 3,2 km/h (1 Bft) 95,24 %
01.04.2019 22:20 9,7 C 7,8 C 6,7 C 70 % 1013,6 hPa 0,0 l/m 0 min 0 min 0 W/m 3,2 km/h (1 Bft) 95,83 %
01.04.2019 22:22 9,7 C 7,8 C 6,7 C 70 % 1013,6 hPa 0,0 l/m 0 min 0 min 0 W/m 3,2 km/h (1 Bft) 93,88 %
01.04.2019 22:24 9,7 C 7,8 C 6,7 C 70 % 1013,6 hPa 0,0 l/m 0 min 0 min 0 W/m 3,2 km/h (1 Bft) 97,92 %
01.04.2019 22:26 9,7 C 7,8 C 6,7 C 70 % 1013,6 hPa 0,0 l/m 0 min 0 min 0 W/m 3,2 km/h (1 Bft) 95,74 %
01.04.2019 22:28 9,6 C 7,8 C 6,7 C 70 % 1013,6 hPa 0,0 l/m 0 min 0 min 0 W/m 3,2 km/h (1 Bft) 97,87 %
01.04.2019 22:30 9,6 C 7,2 C 6,7 C 70 % 1013,5 hPa 0,0 l/m 0 min 0 min 0 W/m 3,2 km/h (1 Bft) 97,56 %
01.04.2019 22:32 9,6 C 7,2 C 6,7 C 70 % 1013,5 hPa 0,0 l/m 0 min 0 min 0 W/m 3,2 km/h (1 Bft) 98,00 %
01.04.2019 22:34 9,5 C 7,2 C 6,1 C 70 % 1013,5 hPa 0,0 l/m 0 min 0 min 0 W/m 3,2 km/h (1 Bft) 95,92 %
01.04.2019 22:36 9,4 C 7,2 C 6,1 C 70 % 1013,5 hPa 0,0 l/m 0 min 0 min 0 W/m 3,2 km/h (1 Bft) 97,87 %
01.04.2019 22:38 9,4 C 7,2 C 6,1 C 70 % 1013,5 hPa 0,0 l/m 0 min 0 min 0 W/m 3,2 km/h (1 Bft) 100,00 %
01.04.2019 22:40 9,4 C 7,2 C 6,1 C 70 % 1013,4 hPa 0,0 l/m 0 min 0 min 0 W/m 3,2 km/h (1 Bft) 97,87 %
01.04.2019 22:42 9,3 C 7,2 C 6,1 C 70 % 1013,4 hPa 0,0 l/m 0 min 0 min 0 W/m 3,2 km/h (1 Bft) 97,62 %
01.04.2019 22:44 9,3 C 7,8 C 6,1 C 70 % 1013,4 hPa 0,0 l/m 0 min 0 min 0 W/m 3,2 km/h (1 Bft) 97,96 %
01.04.2019 22:46 9,2 C 7,8 C 6,1 C 70 % 1013,4 hPa 0,0 l/m 0 min 0 min 0 W/m 6,4 km/h (2 Bft) 97,96 %
01.04.2019 22:48 9,2 C 7,2 C 6,1 C 70 % 1013,4 hPa 0,0 l/m 0 min 0 min 0 W/m 3,2 km/h (1 Bft) 97,87 %
01.04.2019 22:50 9,2 C 7,2 C 6,1 C 70 % 1013,4 hPa 0,0 l/m 0 min 0 min 0 W/m 3,2 km/h (1 Bft) 97,87 %
01.04.2019 22:52 9,1 C 7,2 C 6,1 C 70 % 1013,3 hPa 0,0 l/m 0 min 0 min 0 W/m 3,2 km/h (1 Bft) 97,87 %
01.04.2019 22:54 9,1 C 7,2 C 6,1 C 71 % 1013,3 hPa 0,0 l/m 0 min 0 min 0 W/m 3,2 km/h (1 Bft) 97,87 %
01.04.2019 22:56 9,0 C 7,2 C 6,1 C 71 % 1013,2 hPa 0,0 l/m 0 min 0 min 0 W/m 3,2 km/h (1 Bft) 97,62 %
01.04.2019 22:58 9,0 C 7,2 C 6,1 C 71 % 1013,3 hPa 0,0 l/m 0 min 0 min 0 W/m 0,0 km/h (0 Bft) 100,00 %
01.04.2019 23:00 8,9 C 7,2 C 6,1 C 71 % 1013,2 hPa 0,0 l/m 0 min 0 min 0 W/m 0,0 km/h (0 Bft) 97,87 %
01.04.2019 23:02 8,9 C 6,7 C 6,1 C 71 % 1013,2 hPa 0,0 l/m 0 min 0 min 0 W/m 0,0 km/h (0 Bft) 100,00 %
01.04.2019 23:04 8,9 C 6,7 C 5,6 C 71 % 1013,2 hPa 0,0 l/m 0 min 0 min 0 W/m 0,0 km/h (0 Bft) 100,00 %
01.04.2019 23:06 8,8 C 6,7 C 5,6 C 71 % 1013,2 hPa 0,0 l/m 0 min 0 min 0 W/m 0,0 km/h (0 Bft) 97,73 %
01.04.2019 23:08 8,8 C 6,7 C 5,6 C 71 % 1013,2 hPa 0,0 l/m 0 min 0 min 0 W/m 0,0 km/h (0 Bft) 100,00 %
01.04.2019 23:10 8,7 C 6,7 C 5,6 C 71 % 1013,2 hPa 0,0 l/m 0 min 0 min 0 W/m 0,0 km/h (0 Bft) 97,96 %
01.04.2019 23:12 8,7 C 6,7 C 5,6 C 71 % 1013,2 hPa 0,0 l/m 0 min 0 min 0 W/m 0,0 km/h (0 Bft) 97,87 %
01.04.2019 23:14 8,7 C 6,7 C 5,6 C 71 % 1013,2 hPa 0,0 l/m 0 min 0 min 0 W/m 0,0 km/h (0 Bft) 100,00 %
01.04.2019 23:16 8,6 C 6,7 C 5,6 C 71 % 1013,2 hPa 0,0 l/m 0 min 0 min 0 W/m 0,0 km/h (0 Bft) 100,00 %
01.04.2019 23:18 8,6 C 6,7 C 5,6 C 71 % 1013,1 hPa 0,0 l/m 0 min 0 min 0 W/m 0,0 km/h (0 Bft) 97,62 %
01.04.2019 23:20 8,5 C 6,1 C 5,6 C 71 % 1013,1 hPa 0,0 l/m 0 min 0 min 0 W/m 3,2 km/h (1 Bft) 97,96 %
01.04.2019 23:22 8,5 C 6,1 C 5,6 C 71 % 1013,1 hPa 0,0 l/m 0 min 0 min 0 W/m 0,0 km/h (0 Bft) 93,88 %
01.04.2019 23:24 8,4 C 6,1 C 5,6 C 71 % 1013,1 hPa 0,0 l/m 0 min 0 min 0 W/m 3,2 km/h (1 Bft) 97,87 %
01.04.2019 23:26 8,4 C 6,1 C 5,6 C 72 % 1013,1 hPa 0,0 l/m 0 min 0 min 0 W/m 0,0 km/h (0 Bft) 97,87 %
01.04.2019 23:28 8,4 C 6,1 C 5,0 C 72 % 1013,0 hPa 0,0 l/m 0 min 0 min 0 W/m 3,2 km/h (1 Bft) 97,87 %
01.04.2019 23:30 8,3 C 6,1 C 5,0 C 72 % 1013,0 hPa 0,0 l/m 0 min 0 min 0 W/m 3,2 km/h (1 Bft) 95,24 %
01.04.2019 23:32 8,3 C 6,1 C 5,0 C 72 % 1013,0 hPa 0,0 l/m 0 min 0 min 0 W/m 0,0 km/h (0 Bft) 98,00 %
01.04.2019 23:34 8,2 C 6,1 C 5,0 C 72 % 1013,0 hPa 0,0 l/m 0 min 0 min 0 W/m 0,0 km/h (0 Bft) 97,92 %
01.04.2019 23:36 8,2 C 6,1 C 5,0 C 72 % 1012,9 hPa 0,0 l/m 0 min 0 min 0 W/m 0,0 km/h (0 Bft) 95,74 %
01.04.2019 23:38 8,2 C 6,7 C 5,0 C 72 % 1012,9 hPa 0,0 l/m 0 min 0 min 0 W/m 0,0 km/h (0 Bft) 95,74 %
01.04.2019 23:40 8,1 C 6,7 C 5,0 C 73 % 1012,9 hPa 0,0 l/m 0 min 0 min 0 W/m 3,2 km/h (1 Bft) 95,12 %
01.04.2019 23:42 8,1 C 6,7 C 5,0 C 73 % 1012,9 hPa 0,0 l/m 0 min 0 min 0 W/m 3,2 km/h (1 Bft) 93,88 %
01.04.2019 23:44 8,1 C 6,7 C 5,0 C 73 % 1012,9 hPa 0,0 l/m 0 min 0 min 0 W/m 3,2 km/h (1 Bft) 93,88 %
01.04.2019 23:46 8,0 C 6,7 C 5,0 C 73 % 1012,9 hPa 0,0 l/m 0 min 0 min 0 W/m 3,2 km/h (1 Bft) 95,83 %
01.04.2019 23:48 7,9 C 6,7 C 5,0 C 73 % 1012,9 hPa 0,0 l/m 0 min 0 min 0 W/m 0,0 km/h (0 Bft) 95,74 %
01.04.2019 23:50 7,9 C 6,7 C 5,0 C 74 % 1012,8 hPa 0,0 l/m 0 min 0 min 0 W/m 0,0 km/h (0 Bft) 93,62 %
01.04.2019 23:52 7,9 C 6,7 C 5,0 C 74 % 1012,8 hPa 0,0 l/m 0 min 0 min 0 W/m 3,2 km/h (1 Bft) 95,24 %
01.04.2019 23:54 7,8 C 6,7 C 5,0 C 74 % 1012,7 hPa 0,0 l/m 0 min 0 min 0 W/m 3,2 km/h (1 Bft) 95,65 %
01.04.2019 23:56 7,8 C 7,2 C 5,0 C 75 % 1012,7 hPa 0,0 l/m 0 min 0 min 0 W/m 6,4 km/h (2 Bft) 95,92 %
01.04.2019 23:58 7,8 C 7,8 C 5,0 C 75 % 1012,7 hPa 0,0 l/m 0 min 0 min 0 W/m 6,4 km/h (2 Bft) 94,00 %
_ Min-Zeit 07:04 06:00 06:24 17:16 23:54 - - - - 21:58 02:00
Minimum _ 1,8 C 1,1 C 0,6 C 48 % 1012,7 hPa - - - - 0,0 km/h (0 Bft) 89,36 %
_ Max-Zeit 16:40 13:40 14:14 07:28 00:07 00:00 12:07 00:00 13:42 00:26 00:00
Maximum _ 18,3 C 25,0 C 26,1 C 85 % 1022,8 hPa 0,0 l/m 3 min 0 min 766 W/m 19,3 km/h
W-NW (3 Bft)
100,00 %
Durchschnitt _ 9,4 C 10,9 C 9,0 C 68 % 1018,7 hPa #0,0 l/m #8:18 h #0 min. 401 W/m 9,1 km/h (2 Bft) 97,66 %
© 2019 W. Hausmann